AFR99 LFPG-FAOR

Flight info

Callsign AFR99
Flight time 10h 5m
Altitude 35000
Route ERIXU DCT ETAMO DCT ADEKA DCT MOKDI DCT MEN DCT AMLIR/N0483F370 DCT FJR DCT OBLAD DCT KAMER UM998 CSO UA605 RIMEL UR985 IMN M999 SEB M214 GARIN/N0486F390 DCT ILDOR UM214 MBY/N0482F410 UM214 OKLAP/N0484F400 UB540 ETMIT UZ35 ITROL UQ44 AVAGO AVAGO1C
Aircraft A359/H-SDE2E3GHIJ3J4J5LM1ORWXY/LB1D1

Departure

Time 2026-05-03 21:58
Airport Charles de Gaulle International Airport (LFPG)

Arrival

Time 2026-05-04 08:03
Airport O.R. Tambo International Airport (FAOR)
Time Latitude Longitude Altitude Speed Heading
2026-05-03 20:28 49.00147 2.57720 368 ft 0 kts 354°
2026-05-03 21:43 49.00146 2.57720 360 ft 0 kts 354°
2026-05-03 21:45 49.00130 2.57722 362 ft 4 kts 358°
2026-05-03 21:45 49.00104 2.57721 367 ft 4 kts
2026-05-03 21:46 49.00078 2.57711 365 ft 4 kts 28°
2026-05-03 21:46 49.00060 2.57687 368 ft 4 kts 77°
2026-05-03 21:46 49.00059 2.57680 366 ft 0 kts 85°
2026-05-03 21:49 49.00059 2.57688 366 ft 3 kts 88°
2026-05-03 21:49 49.00035 2.57730 366 ft 7 kts 160°
2026-05-03 21:50 48.99994 2.57781 369 ft 9 kts 114°
2026-05-03 21:50 48.99990 2.57899 366 ft 13 kts 85°
2026-05-03 21:50 48.99997 2.58057 360 ft 17 kts 86°
2026-05-03 21:50 49.00008 2.58246 364 ft 19 kts 85°
2026-05-03 21:51 49.00019 2.58464 366 ft 22 kts 85°
2026-05-03 21:51 49.00032 2.58705 365 ft 24 kts 85°
2026-05-03 21:51 49.00045 2.58961 360 ft 25 kts 84°
2026-05-03 21:51 49.00060 2.59226 367 ft 25 kts 85°
2026-05-03 21:52 49.00074 2.59484 366 ft 22 kts 84°
2026-05-03 21:52 49.00087 2.59716 368 ft 22 kts 85°
2026-05-03 21:52 49.00096 2.59919 360 ft 18 kts 86°
2026-05-03 21:52 49.00104 2.60078 363 ft 14 kts 85°
2026-05-03 21:53 49.00105 2.60183 361 ft 6 kts 104°
2026-05-03 21:53 49.00094 2.60206 369 ft 0 kts 132°
2026-05-03 21:53 49.00088 2.60214 365 ft 5 kts 142°
2026-05-03 21:54 49.00037 2.60231 367 ft 9 kts 174°
2026-05-03 21:54 48.99973 2.60240 365 ft 10 kts 175°
2026-05-03 21:54 48.99909 2.60218 366 ft 10 kts 208°
2026-05-03 21:54 48.99852 2.60145 368 ft 12 kts 224°
2026-05-03 21:55 48.99824 2.60040 363 ft 7 kts 265°
2026-05-03 21:55 48.99823 2.60030 362 ft 0 kts 265°
2026-05-03 21:57 48.99823 2.60018 361 ft 8 kts 265°
2026-05-03 21:57 48.99804 2.59658 365 ft 64 kts 265°
2026-05-03 21:57 48.99753 2.58705 358 ft 115 kts 265°
2026-05-03 21:57 48.99676 2.57254 360 ft 159 kts 265°
2026-05-03 21:58 48.99589 2.55453 726 ft 167 kts 263°
2026-05-03 21:58 48.99508 2.53704 1321 ft 168 kts 264°
2026-05-03 21:58 48.99424 2.51905 1838 ft 173 kts 264°
2026-05-03 21:58 48.99339 2.50073 2289 ft 179 kts 264°
2026-05-03 21:59 48.99239 2.48129 2617 ft 190 kts 263°
2026-05-03 21:59 48.99116 2.46069 2955 ft 201 kts 263°
2026-05-03 21:59 48.98962 2.43881 3230 ft 217 kts 262°
2026-05-03 21:59 48.98795 2.41488 3445 ft 237 kts 263°
2026-05-03 22:00 48.98647 2.38903 3777 ft 251 kts 264°
2026-05-03 22:00 48.98508 2.36250 4390 ft 253 kts 264°
2026-05-03 22:00 48.98370 2.33568 5014 ft 255 kts 264°
2026-05-03 22:00 48.98227 2.30858 5644 ft 258 kts 263°
2026-05-03 22:01 48.98078 2.28161 6282 ft 260 kts 263°
2026-05-03 22:01 48.97923 2.25405 6910 ft 263 kts 263°
2026-05-03 22:01 48.97767 2.22625 7561 ft 265 kts 263°
2026-05-03 22:01 48.97609 2.19823 8243 ft 266 kts 263°
2026-05-03 22:02 48.97449 2.17008 8933 ft 270 kts 263°
2026-05-03 22:02 48.97285 2.14149 9612 ft 272 kts 263°
2026-05-03 22:02 48.97119 2.11265 10224 ft 277 kts 262°
2026-05-03 22:02 48.96943 2.08260 10537 ft 292 kts 262°
2026-05-03 22:03 48.96592 2.05146 10860 ft 304 kts 251°
2026-05-03 22:03 48.95651 2.02317 11390 ft 307 kts 232°
2026-05-03 22:03 48.94084 2.00118 12026 ft 309 kts 212°
2026-05-03 22:03 48.92083 1.98903 12670 ft 314 kts 192°
2026-05-03 22:04 48.89887 1.98866 13285 ft 321 kts 172°
2026-05-03 22:04 48.87676 1.99461 13897 ft 323 kts 177°
2026-05-03 22:04 48.85434 1.99620 14467 ft 323 kts 182°
2026-05-03 22:04 48.83178 1.99622 15045 ft 325 kts 183°
2026-05-03 22:05 48.80909 1.99601 15605 ft 327 kts 183°
2026-05-03 22:05 48.78625 1.99576 16171 ft 329 kts 183°
2026-05-03 22:05 48.76329 1.99550 16716 ft 331 kts 183°
2026-05-03 22:05 48.74014 1.99522 17289 ft 333 kts 183°
2026-05-03 22:06 48.71687 1.99495 17855 ft 336 kts 183°
2026-05-03 22:06 48.69373 1.99467 18401 ft 338 kts 183°
2026-05-03 22:06 48.67007 1.99471 18811 ft 341 kts 181°
2026-05-03 22:06 48.64651 1.99968 19000 ft 346 kts 168°
2026-05-03 22:07 48.62356 2.01173 19380 ft 352 kts 163°
2026-05-03 22:07 48.60077 2.02543 19945 ft 353 kts 163°
2026-05-03 22:07 48.57798 2.03920 20514 ft 353 kts 163°
2026-05-03 22:07 48.55513 2.05291 21076 ft 354 kts 163°
2026-05-03 22:08 48.53224 2.06659 21589 ft 355 kts 164°
2026-05-03 22:08 48.50916 2.08032 22115 ft 357 kts 164°
2026-05-03 22:08 48.48605 2.09405 22654 ft 358 kts 164°
2026-05-03 22:08 48.46315 2.10763 23144 ft 360 kts 164°
2026-05-03 22:09 48.43977 2.12148 23631 ft 361 kts 165°
2026-05-03 22:09 48.41631 2.13536 24020 ft 363 kts 165°
2026-05-03 22:09 48.39277 2.14927 24475 ft 364 kts 164°
2026-05-03 22:10 48.34518 2.17734 25128 ft 371 kts 164°
2026-05-03 22:10 48.32111 2.19152 25508 ft 373 kts 164°
2026-05-03 22:10 48.29678 2.20517 25885 ft 373 kts 168°
2026-05-03 22:10 48.27171 2.21416 26263 ft 370 kts 175°
2026-05-03 22:11 48.24631 2.22054 26640 ft 371 kts 176°
2026-05-03 22:11 48.22107 2.22655 27016 ft 373 kts 176°
2026-05-03 22:11 48.19539 2.23269 27363 ft 375 kts 176°
2026-05-03 22:11 48.16949 2.23889 27629 ft 379 kts 176°
2026-05-03 22:12 48.14333 2.24519 27985 ft 382 kts 176°
2026-05-03 22:12 48.11705 2.25153 28354 ft 383 kts 176°
2026-05-03 22:12 48.09065 2.25768 28692 ft 384 kts 178°
2026-05-03 22:12 48.06407 2.26136 28952 ft 386 kts 181°
2026-05-03 22:13 48.03714 2.26365 29100 ft 391 kts 182°
2026-05-03 22:13 48.01006 2.26530 29274 ft 397 kts 183°
2026-05-03 22:13 47.98229 2.26675 29438 ft 402 kts 184°
2026-05-03 22:13 47.95410 2.26822 29571 ft 409 kts 183°
2026-05-03 22:14 47.92546 2.26980 29732 ft 415 kts 183°
2026-05-03 22:14 47.89641 2.27149 29873 ft 421 kts 183°
2026-05-03 22:14 47.86689 2.27330 30025 ft 427 kts 183°
2026-05-03 22:14 47.83705 2.27518 30156 ft 433 kts 183°
2026-05-03 22:15 47.80681 2.27711 30310 ft 437 kts 183°
2026-05-03 22:15 47.77633 2.27908 30512 ft 440 kts 182°
2026-05-03 22:15 47.74608 2.28103 30767 ft 441 kts 182°
2026-05-03 22:15 47.71535 2.28302 31003 ft 443 kts 182°
2026-05-03 22:16 47.68450 2.28499 31239 ft 445 kts 183°
2026-05-03 22:16 47.65363 2.28696 31554 ft 444 kts 183°
2026-05-03 22:16 47.62276 2.28894 31901 ft 443 kts 183°
2026-05-03 22:16 47.59208 2.29089 32220 ft 442 kts 183°
2026-05-03 22:17 47.56129 2.29282 32522 ft 441 kts 183°
2026-05-03 22:17 47.53064 2.29474 32831 ft 441 kts 183°
2026-05-03 22:17 47.50007 2.29666 33142 ft 440 kts 183°
2026-05-03 22:17 47.46987 2.29856 33435 ft 439 kts 184°
2026-05-03 22:18 47.43939 2.30047 33738 ft 438 kts 184°
2026-05-03 22:18 47.40892 2.30237 33981 ft 438 kts 184°
2026-05-03 22:18 47.37847 2.30427 34194 ft 438 kts 184°
2026-05-03 22:18 47.34799 2.30616 34334 ft 439 kts 183°
2026-05-03 22:19 47.31748 2.30806 34533 ft 439 kts 183°
2026-05-03 22:19 47.28695 2.30995 34683 ft 440 kts 183°
2026-05-03 22:19 47.25628 2.31186 34826 ft 441 kts 182°
2026-05-03 22:19 47.22558 2.31376 34954 ft 443 kts 182°
2026-05-03 22:20 47.19509 2.31564 34994 ft 446 kts 182°
2026-05-03 22:20 47.13273 2.31947 34986 ft 449 kts 182°
2026-05-03 22:21 47.07024 2.32336 34991 ft 449 kts 182°
2026-05-03 22:21 47.00776 2.32723 34993 ft 449 kts 182°
2026-05-03 22:22 46.94533 2.33108 34989 ft 449 kts 182°
2026-05-03 22:22 46.88318 2.33619 34993 ft 454 kts 178°
2026-05-03 22:23 46.82160 2.36017 34996 ft 466 kts 162°
2026-05-03 22:23 46.76471 2.40756 34995 ft 475 kts 153°
2026-05-03 22:24 46.70943 2.46072 34992 ft 476 kts 152°
2026-05-03 22:24 46.65457 2.51393 34998 ft 477 kts 152°
2026-05-03 22:25 46.59919 2.56685 35002 ft 476 kts 152°
2026-05-03 22:25 46.54366 2.61937 34998 ft 476 kts 153°
2026-05-03 22:26 46.48813 2.67167 35000 ft 475 kts 152°
2026-05-03 22:26 46.43266 2.72381 35007 ft 475 kts 152°
2026-05-03 22:27 46.37760 2.77544 35010 ft 475 kts 152°
2026-05-03 22:27 46.32215 2.82732 34996 ft 475 kts 152°
2026-05-03 22:28 46.26654 2.87924 35019 ft 476 kts 152°
2026-05-03 22:28 46.21085 2.93110 35020 ft 476 kts 152°
2026-05-03 22:29 46.15514 2.98286 35007 ft 476 kts 152°
2026-05-03 22:29 46.09978 3.03416 35014 ft 476 kts 153°
2026-05-03 22:30 46.04404 3.08566 35016 ft 476 kts 153°
2026-05-03 22:30 45.98804 3.13654 35019 ft 474 kts 156°
2026-05-03 22:31 45.92780 3.17118 35013 ft 462 kts 172°
2026-05-03 22:31 45.86513 3.18007 35020 ft 454 kts 183°
2026-05-03 22:32 45.80209 3.17958 35022 ft 453 kts 185°
2026-05-03 22:32 45.73904 3.17785 35022 ft 453 kts 185°
2026-05-03 22:33 45.67604 3.17653 35021 ft 453 kts 184°
2026-05-03 22:33 45.61313 3.17558 35024 ft 452 kts 184°
2026-05-03 22:34 45.55060 3.17478 35029 ft 452 kts 184°
2026-05-03 22:34 45.48759 3.17397 35031 ft 453 kts 184°
2026-05-03 22:35 45.42462 3.17314 35030 ft 453 kts 184°
2026-05-03 22:35 45.36158 3.17233 35033 ft 453 kts 184°
2026-05-03 22:36 45.29893 3.17149 35037 ft 453 kts 184°
2026-05-03 22:36 45.23583 3.17059 35039 ft 454 kts 184°
2026-05-03 22:37 45.17268 3.16978 35041 ft 454 kts 184°
2026-05-03 22:37 45.10952 3.16897 35041 ft 454 kts 184°
2026-05-03 22:38 45.04630 3.16815 35046 ft 454 kts 184°
2026-05-03 22:38 44.98350 3.16732 35049 ft 454 kts 184°
2026-05-03 22:39 44.92027 3.16645 35043 ft 453 kts 184°
2026-05-03 22:39 44.85734 3.16565 35044 ft 452 kts 184°
2026-05-03 22:40 44.79446 3.16484 35047 ft 452 kts 184°
2026-05-03 22:40 44.73159 3.16403 35048 ft 452 kts 184°
2026-05-03 22:41 44.66918 3.16322 35048 ft 452 kts 184°
2026-05-03 22:41 44.60633 3.16240 35050 ft 451 kts 184°
2026-05-03 22:42 44.54345 3.16273 35046 ft 453 kts 182°
2026-05-03 22:42 44.48035 3.16704 35048 ft 457 kts 175°
2026-05-03 22:43 44.41932 3.19199 35049 ft 467 kts 159°
2026-05-03 22:43 44.36316 3.23902 35050 ft 473 kts 151°
2026-05-03 22:44 44.30872 3.29121 35054 ft 475 kts 150°
2026-05-03 22:44 44.25446 3.34369 35060 ft 474 kts 150°
2026-05-03 22:45 44.19999 3.39557 35070 ft 474 kts 150°
2026-05-03 22:45 44.14573 3.44674 35062 ft 474 kts 150°
2026-05-03 22:46 44.09115 3.49812 35067 ft 473 kts 150°
2026-05-03 22:46 44.03654 3.54930 35075 ft 473 kts 150°
2026-05-03 22:47 43.98192 3.60040 35075 ft 473 kts 150°
2026-05-03 22:47 43.92726 3.65143 35083 ft 474 kts 150°
2026-05-03 22:48 43.87295 3.70205 35083 ft 473 kts 150°
2026-05-03 22:48 43.81828 3.75289 35082 ft 473 kts 150°
2026-05-03 22:49 43.76361 3.80362 35068 ft 473 kts 150°
2026-05-03 22:49 43.70886 3.85430 35067 ft 474 kts 150°
2026-05-03 22:50 43.65445 3.90456 35069 ft 474 kts 150°
2026-05-03 22:50 43.59968 3.95500 35062 ft 473 kts 151°
2026-05-03 22:51 43.54182 3.99682 35070 ft 468 kts 159°
2026-05-03 22:51 43.48246 4.03335 35074 ft 467 kts 160°
2026-05-03 22:52 43.42290 4.06893 35070 ft 467 kts 160°
2026-05-03 22:52 43.36374 4.10428 35065 ft 467 kts 160°
2026-05-03 22:53 43.30418 4.13998 35058 ft 467 kts 160°
2026-05-03 22:53 43.24467 4.17565 35057 ft 467 kts 160°
2026-05-03 22:54 43.18512 4.21128 35042 ft 468 kts 160°
2026-05-03 22:54 43.12578 4.24669 35043 ft 468 kts 160°
2026-05-03 22:55 43.06611 4.28223 35054 ft 468 kts 160°
2026-05-03 22:55 43.00647 4.31768 35053 ft 468 kts 160°
2026-05-03 22:56 42.94676 4.35309 35048 ft 468 kts 160°
2026-05-03 22:56 42.88712 4.38839 35039 ft 467 kts 160°
2026-05-03 22:57 42.82790 4.42336 35053 ft 467 kts 160°
2026-05-03 22:57 42.76830 4.45848 35054 ft 467 kts 160°
2026-05-03 22:58 42.70865 4.49356 35044 ft 467 kts 160°
2026-05-03 22:58 42.64905 4.52853 35036 ft 467 kts 160°
2026-05-03 22:59 42.58982 4.56321 35043 ft 467 kts 160°
2026-05-03 22:59 42.53017 4.59807 35043 ft 468 kts 160°
2026-05-03 23:00 42.47020 4.63303 35038 ft 470 kts 160°
2026-05-03 23:00 42.40999 4.66808 35037 ft 471 kts 160°
2026-05-03 23:01 42.35026 4.70277 35033 ft 471 kts 160°
2026-05-03 23:01 42.29003 4.73767 35033 ft 471 kts 160°
2026-05-03 23:02 42.22965 4.77259 35034 ft 472 kts 160°
2026-05-03 23:02 42.16923 4.80746 35031 ft 472 kts 160°
2026-05-03 23:03 42.10874 4.84230 35031 ft 472 kts 160°
2026-05-03 23:03 42.04865 4.87683 35029 ft 474 kts 160°
2026-05-03 23:04 41.98792 4.91164 35037 ft 475 kts 160°
2026-05-03 23:04 41.92711 4.94645 35037 ft 475 kts 160°
2026-05-03 23:05 41.86615 4.98125 35031 ft 479 kts 161°
2026-05-03 23:05 41.80461 5.01448 35037 ft 479 kts 166°
2026-05-03 23:06 41.74114 5.04115 35045 ft 478 kts 167°
2026-05-03 23:06 41.67738 5.06650 35045 ft 478 kts 167°
2026-05-03 23:07 41.61365 5.09161 35042 ft 479 kts 168°
2026-05-03 23:07 41.55004 5.11675 35042 ft 479 kts 168°
2026-05-03 23:08 41.48607 5.14207 35042 ft 480 kts 168°
2026-05-03 23:08 41.42215 5.16735 35039 ft 479 kts 168°
2026-05-03 23:09 41.35828 5.19255 35048 ft 479 kts 168°
2026-05-03 23:09 41.29448 5.21766 35052 ft 478 kts 168°
2026-05-03 23:09 41.26299 5.23004 35266 ft 476 kts 168°
2026-05-03 23:10 41.23130 5.24250 35583 ft 473 kts 168°
2026-05-03 23:10 41.19975 5.25488 35803 ft 472 kts 169°
2026-05-03 23:10 41.16829 5.26720 35962 ft 472 kts 169°
2026-05-03 23:10 41.13676 5.27953 36126 ft 472 kts 169°
2026-05-03 23:11 41.10519 5.29186 36269 ft 473 kts 169°
2026-05-03 23:11 41.07367 5.30416 36413 ft 473 kts 169°
2026-05-03 23:11 41.04209 5.31648 36559 ft 473 kts 169°
2026-05-03 23:11 41.01094 5.32862 36692 ft 473 kts 169°
2026-05-03 23:12 40.97929 5.34095 36700 ft 476 kts 170°
2026-05-03 23:12 40.91537 5.36577 36854 ft 479 kts 170°
2026-05-03 23:12 40.88341 5.37819 37010 ft 479 kts 170°
2026-05-03 23:13 40.85140 5.39061 37049 ft 481 kts 170°
2026-05-03 23:13 40.78690 5.41557 37047 ft 485 kts 170°
2026-05-03 23:14 40.72247 5.44049 37056 ft 487 kts 171°
2026-05-03 23:14 40.65748 5.46556 37055 ft 487 kts 171°
2026-05-03 23:15 40.59244 5.49061 37057 ft 487 kts 171°
2026-05-03 23:15 40.52729 5.51565 37058 ft 487 kts 171°
2026-05-03 23:16 40.46266 5.54043 37057 ft 487 kts 171°
2026-05-03 23:16 40.39760 5.56532 37055 ft 487 kts 171°
2026-05-03 23:17 40.33251 5.59017 37040 ft 487 kts 171°
2026-05-03 23:17 40.26728 5.61502 37057 ft 489 kts 171°
2026-05-03 23:18 40.20233 5.63971 37056 ft 490 kts 171°
2026-05-03 23:18 40.13696 5.66453 37056 ft 490 kts 171°
2026-05-03 23:19 40.07143 5.68936 37056 ft 491 kts 171°
2026-05-03 23:19 40.00579 5.71415 37049 ft 492 kts 171°
2026-05-03 23:20 39.93987 5.73900 37050 ft 494 kts 171°
2026-05-03 23:20 39.87421 5.76373 37044 ft 495 kts 171°
2026-05-03 23:21 39.80791 5.78864 37059 ft 496 kts 171°
2026-05-03 23:21 39.74155 5.81353 37056 ft 497 kts 171°
2026-05-03 23:22 39.64238 5.85064 37041 ft 496 kts 171°
2026-05-03 23:22 39.57597 5.87542 37053 ft 497 kts 171°
2026-05-03 23:23 39.50953 5.90016 37053 ft 497 kts 171°
2026-05-03 23:23 39.44308 5.92486 37053 ft 497 kts 171°
2026-05-03 23:24 39.37659 5.94952 37053 ft 497 kts 172°
2026-05-03 23:24 39.31060 5.97395 37053 ft 497 kts 172°
2026-05-03 23:25 39.24411 5.99851 37055 ft 497 kts 172°
2026-05-03 23:25 39.17761 6.02303 37044 ft 497 kts 172°
2026-05-03 23:26 39.11142 6.04738 37058 ft 498 kts 172°
2026-05-03 23:26 39.04472 6.07188 37057 ft 498 kts 172°
2026-05-03 23:27 38.97776 6.09228 37057 ft 492 kts 178°
2026-05-03 23:27 38.91009 6.10659 37056 ft 494 kts 179°
2026-05-03 23:28 38.84262 6.11985 37059 ft 494 kts 179°
2026-05-03 23:28 38.77470 6.13313 37056 ft 494 kts 179°
2026-05-03 23:29 38.70672 6.14652 37058 ft 494 kts 179°
2026-05-03 23:29 38.65009 6.15768 37053 ft 496 kts 179°
2026-05-03 23:30 38.58176 6.17117 37059 ft 497 kts 179°
2026-05-03 23:30 38.50233 6.18682 37052 ft 497 kts 179°
2026-05-03 23:31 38.43396 6.20026 37050 ft 498 kts 179°
2026-05-03 23:31 38.37695 6.21143 37059 ft 498 kts 179°
2026-05-03 23:32 38.30840 6.22485 37055 ft 498 kts 179°
2026-05-03 23:32 38.22872 6.24042 37054 ft 498 kts 179°
2026-05-03 23:33 38.17128 6.25162 37054 ft 498 kts 179°
2026-05-03 23:33 38.10319 6.26487 37051 ft 498 kts 179°
2026-05-03 23:34 38.03464 6.27819 37056 ft 498 kts 179°
2026-05-03 23:34 37.96607 6.29147 37051 ft 500 kts 179°
2026-05-03 23:35 37.89720 6.30479 37050 ft 500 kts 179°
2026-05-03 23:35 37.82885 6.31801 37049 ft 500 kts 179°
2026-05-03 23:36 37.76007 6.33128 37036 ft 500 kts 179°
2026-05-03 23:36 37.69111 6.34454 37044 ft 501 kts 179°
2026-05-03 23:37 37.62213 6.35779 37038 ft 501 kts 179°
2026-05-03 23:37 37.55367 6.37092 37043 ft 501 kts 179°
2026-05-03 23:38 37.48466 6.38412 37041 ft 502 kts 179°
2026-05-03 23:38 37.41559 6.39731 37039 ft 502 kts 179°
2026-05-03 23:39 37.34646 6.41049 37040 ft 502 kts 179°
2026-05-03 23:39 37.27786 6.42355 37027 ft 502 kts 179°
2026-05-03 23:40 37.20886 6.43667 37040 ft 501 kts 179°
2026-05-03 23:40 37.13996 6.44973 37046 ft 501 kts 179°
2026-05-03 23:41 37.07105 6.46276 37049 ft 501 kts 179°
2026-05-03 23:41 37.00255 6.47570 37048 ft 501 kts 179°
2026-05-03 23:42 36.93352 6.48872 37053 ft 502 kts 180°
2026-05-03 23:42 36.86426 6.50173 37060 ft 503 kts 180°
2026-05-03 23:43 36.79505 6.51473 37055 ft 503 kts 179°
2026-05-03 23:43 36.72650 6.52759 37075 ft 501 kts 179°
2026-05-03 23:44 36.65758 6.54051 37084 ft 501 kts 179°
2026-05-03 23:44 36.58872 6.55338 37091 ft 501 kts 179°
2026-05-03 23:45 36.51980 6.56620 37130 ft 501 kts 179°
2026-05-03 23:45 36.45141 6.57894 37138 ft 500 kts 179°
2026-05-03 23:46 36.38261 6.59173 37156 ft 500 kts 179°
2026-05-03 23:46 36.31373 6.60451 37140 ft 500 kts 179°
2026-05-03 23:47 36.24498 6.61867 37157 ft 503 kts 176°
2026-05-03 23:47 36.17692 6.63672 37155 ft 504 kts 175°
2026-05-03 23:48 36.10839 6.65523 37147 ft 504 kts 176°
2026-05-03 23:48 36.03981 6.67310 37140 ft 503 kts 176°
2026-05-03 23:49 35.97120 6.69059 37138 ft 503 kts 176°
2026-05-03 23:49 35.90309 6.70783 37138 ft 503 kts 176°
2026-05-03 23:50 35.83448 6.72520 37137 ft 503 kts 176°
2026-05-03 23:50 35.76594 6.74254 37138 ft 503 kts 176°
2026-05-03 23:51 35.69739 6.75987 37143 ft 503 kts 176°
2026-05-03 23:51 35.62886 6.77716 37142 ft 503 kts 176°
2026-05-03 23:52 35.56073 6.79431 37123 ft 503 kts 176°
2026-05-03 23:52 35.49219 6.81153 37143 ft 503 kts 176°
2026-05-03 23:53 35.42359 6.82874 37165 ft 503 kts 176°
2026-05-03 23:53 35.35505 6.84591 37158 ft 503 kts 176°
2026-05-03 23:54 35.28677 6.86295 37154 ft 505 kts 176°
2026-05-03 23:54 35.21774 6.88017 37171 ft 506 kts 176°
2026-05-03 23:55 35.14875 6.89739 37170 ft 506 kts 176°
2026-05-03 23:55 35.07972 6.91458 37170 ft 506 kts 176°
2026-05-03 23:56 35.01121 6.93159 37166 ft 506 kts 176°
2026-05-03 23:56 34.94221 6.94870 37154 ft 506 kts 176°
2026-05-03 23:57 34.87326 6.96577 37157 ft 506 kts 176°
2026-05-03 23:57 34.80436 6.98276 37148 ft 505 kts 176°
2026-05-03 23:58 34.73591 6.99993 37141 ft 505 kts 175°
2026-05-03 23:58 34.66715 7.01741 37139 ft 505 kts 175°
2026-05-03 23:59 34.59843 7.03484 37131 ft 504 kts 175°
2026-05-03 23:59 34.52969 7.05218 37103 ft 504 kts 175°
2026-05-04 00:00 34.46147 7.06936 37125 ft 504 kts 175°
2026-05-04 00:00 34.39282 7.08661 37116 ft 504 kts 175°
2026-05-04 00:01 34.32420 7.10382 37116 ft 504 kts 175°
2026-05-04 00:01 34.25557 7.12101 37106 ft 503 kts 175°
2026-05-04 00:02 34.18740 7.13805 37115 ft 503 kts 175°
2026-05-04 00:02 34.11883 7.15517 37115 ft 503 kts 175°
2026-05-04 00:03 34.05023 7.17226 37111 ft 503 kts 175°
2026-05-04 00:03 33.98160 7.18934 37107 ft 503 kts 175°
2026-05-04 00:04 33.91340 7.20628 37116 ft 504 kts 175°
2026-05-04 00:04 33.84483 7.22329 37116 ft 504 kts 175°
2026-05-04 00:05 33.77617 7.24029 37115 ft 504 kts 175°
2026-05-04 00:05 33.70756 7.25724 37114 ft 504 kts 174°
2026-05-04 00:06 33.63891 7.27418 37116 ft 503 kts 174°
2026-05-04 00:06 33.57072 7.29099 37116 ft 504 kts 174°
2026-05-04 00:07 33.50212 7.30786 37115 ft 503 kts 174°
2026-05-04 00:07 33.43348 7.32471 37113 ft 504 kts 174°
2026-05-04 00:08 33.36477 7.34156 37116 ft 504 kts 174°
2026-05-04 00:08 33.29653 7.35827 37116 ft 504 kts 174°
2026-05-04 00:09 33.22781 7.37507 37115 ft 504 kts 174°
2026-05-04 00:09 33.15907 7.39184 37117 ft 504 kts 174°
2026-05-04 00:10 33.09038 7.40857 37118 ft 504 kts 174°
2026-05-04 00:10 33.02208 7.42518 37116 ft 504 kts 174°
2026-05-04 00:11 32.95338 7.44187 37115 ft 504 kts 174°
2026-05-04 00:11 32.88464 7.45853 37112 ft 504 kts 174°
2026-05-04 00:12 32.81599 7.47515 37110 ft 504 kts 174°
2026-05-04 00:12 32.74775 7.49165 37110 ft 504 kts 174°
2026-05-04 00:13 32.67909 7.50822 37112 ft 504 kts 174°
2026-05-04 00:13 32.61037 7.52477 37116 ft 504 kts 174°
2026-05-04 00:14 32.54172 7.54129 37109 ft 503 kts 174°
2026-05-04 00:14 32.47309 7.55777 37110 ft 503 kts 174°
2026-05-04 00:15 32.40490 7.57413 37110 ft 503 kts 174°
2026-05-04 00:15 32.33628 7.59055 37104 ft 504 kts 174°
2026-05-04 00:16 32.26745 7.60700 37105 ft 505 kts 174°
2026-05-04 00:16 32.19856 7.62345 37103 ft 505 kts 174°
2026-05-04 00:17 32.13012 7.63976 37107 ft 505 kts 174°
2026-05-04 00:17 32.06117 7.65617 37103 ft 505 kts 174°
2026-05-04 00:18 31.99229 7.67254 37108 ft 505 kts 174°
2026-05-04 00:18 31.92339 7.68889 37099 ft 505 kts 174°
2026-05-04 00:19 31.85496 7.70510 37103 ft 505 kts 174°
2026-05-04 00:19 31.78609 7.72153 37096 ft 506 kts 172°
2026-05-04 00:20 31.71914 7.74915 37099 ft 513 kts 161°
2026-05-04 00:20 31.65384 7.78344 37099 ft 515 kts 160°
2026-05-04 00:21 31.58922 7.81857 37096 ft 515 kts 160°
2026-05-04 00:21 31.52416 7.85376 37096 ft 515 kts 160°
2026-05-04 00:22 31.45902 7.88868 37094 ft 515 kts 160°
2026-05-04 00:22 31.39433 7.92321 37094 ft 515 kts 160°
2026-05-04 00:23 31.32912 7.95795 37092 ft 515 kts 160°
2026-05-04 00:23 31.26395 7.99262 37076 ft 515 kts 160°
2026-05-04 00:24 31.19862 8.02733 37092 ft 516 kts 160°
2026-05-04 00:24 31.13374 8.06176 37086 ft 516 kts 160°
2026-05-04 00:25 31.06839 8.09639 37089 ft 516 kts 160°
2026-05-04 00:25 31.00304 8.13095 37083 ft 516 kts 160°
2026-05-04 00:26 30.93766 8.16548 37083 ft 516 kts 160°
2026-05-04 00:26 30.87278 8.19970 37083 ft 516 kts 160°
2026-05-04 00:27 30.80741 8.23413 37081 ft 515 kts 160°
2026-05-04 00:27 30.74206 8.26850 37081 ft 515 kts 160°
2026-05-04 00:28 30.67672 8.30280 37065 ft 515 kts 160°
2026-05-04 00:28 30.61183 8.33683 37077 ft 515 kts 160°
2026-05-04 00:29 30.54640 8.37108 37079 ft 516 kts 160°
2026-05-04 00:29 30.48090 8.40531 37081 ft 517 kts 160°
2026-05-04 00:30 30.41542 8.43987 37077 ft 517 kts 159°
2026-05-04 00:30 30.35011 8.47480 37077 ft 517 kts 159°
2026-05-04 00:31 30.28520 8.50944 37079 ft 517 kts 159°
2026-05-04 00:31 30.21984 8.54420 37078 ft 517 kts 159°
2026-05-04 00:32 30.15445 8.57890 37079 ft 517 kts 159°
2026-05-04 00:32 30.08902 8.61355 37074 ft 517 kts 160°
2026-05-04 00:33 29.99138 8.66517 37073 ft 517 kts 160°
2026-05-04 00:34 29.92591 8.69972 37087 ft 517 kts 160°
2026-05-04 00:34 29.86045 8.73421 37076 ft 518 kts 159°
2026-05-04 00:35 29.79494 8.76868 37076 ft 518 kts 160°
2026-05-04 00:35 29.72978 8.80292 37078 ft 518 kts 160°
2026-05-04 00:36 29.66419 8.83734 37076 ft 518 kts 160°
2026-05-04 00:36 29.59861 8.87170 37075 ft 518 kts 160°
2026-05-04 00:37 29.53297 8.90604 37072 ft 518 kts 160°
2026-05-04 00:37 29.46737 8.94032 37066 ft 518 kts 160°
2026-05-04 00:38 29.40210 8.97437 37072 ft 519 kts 160°
2026-05-04 00:38 29.33642 9.00859 37075 ft 519 kts 160°
2026-05-04 00:39 29.27070 9.04278 37069 ft 519 kts 160°
2026-05-04 00:39 29.20500 9.07691 37063 ft 519 kts 160°
2026-05-04 00:40 29.13961 9.11083 37079 ft 520 kts 160°
2026-05-04 00:40 29.07375 9.14495 37077 ft 520 kts 160°
2026-05-04 00:41 29.00784 9.17905 37076 ft 520 kts 160°
2026-05-04 00:41 28.94190 9.21311 37076 ft 520 kts 160°
2026-05-04 00:42 28.87594 9.24714 37081 ft 521 kts 160°
2026-05-04 00:42 28.81035 9.28092 37078 ft 521 kts 160°
2026-05-04 00:43 28.74426 9.31492 37078 ft 521 kts 160°
2026-05-04 00:43 28.67816 9.34888 37075 ft 521 kts 160°
2026-05-04 00:44 28.61211 9.38277 37065 ft 521 kts 160°
2026-05-04 00:44 28.54653 9.41637 37074 ft 520 kts 160°
2026-05-04 00:45 28.48053 9.45013 37077 ft 520 kts 160°
2026-05-04 00:45 28.41448 9.48387 37076 ft 520 kts 160°
2026-05-04 00:46 28.34841 9.51757 37074 ft 521 kts 160°
2026-05-04 00:46 28.28229 9.55126 37075 ft 521 kts 160°
2026-05-04 00:47 28.21656 9.58470 37072 ft 521 kts 160°
2026-05-04 00:47 28.15060 9.61912 37069 ft 524 kts 156°
2026-05-04 00:48 28.09207 9.66917 37101 ft 534 kts 135°
2026-05-04 00:48 28.06912 9.70239 37103 ft 538 kts 124°
2026-05-04 00:48 28.05194 9.74000 37102 ft 540 kts 112°
2026-05-04 00:49 28.03125 9.82115 37092 ft 541 kts 103°
2026-05-04 00:49 28.01434 9.90429 37087 ft 542 kts 102°
2026-05-04 00:50 27.99749 9.98755 37076 ft 543 kts 103°
2026-05-04 00:50 27.98009 10.07075 37073 ft 544 kts 103°
2026-05-04 00:51 27.96239 10.15388 37077 ft 544 kts 103°
2026-05-04 00:51 27.94470 10.23646 37076 ft 544 kts 103°
2026-05-04 00:52 27.92684 10.31968 37078 ft 545 kts 103°
2026-05-04 00:52 27.90894 10.40289 37074 ft 545 kts 103°
2026-05-04 00:53 27.89100 10.48605 37081 ft 545 kts 103°
2026-05-04 00:53 27.87300 10.56921 37081 ft 545 kts 103°
2026-05-04 00:54 27.85507 10.65181 37080 ft 545 kts 103°
2026-05-04 00:54 27.83697 10.73492 37084 ft 545 kts 103°
2026-05-04 00:55 27.81880 10.81810 37086 ft 545 kts 103°
2026-05-04 00:55 27.80059 10.90121 37089 ft 545 kts 104°
2026-05-04 00:56 27.78247 10.98366 37089 ft 545 kts 104°
2026-05-04 00:56 27.76417 11.06669 37097 ft 545 kts 104°
2026-05-04 00:57 27.74581 11.14970 37095 ft 545 kts 104°
2026-05-04 00:57 27.72741 11.23268 37089 ft 545 kts 104°
2026-05-04 00:58 27.70907 11.31513 37098 ft 545 kts 104°
2026-05-04 00:58 27.69056 11.39806 37099 ft 546 kts 104°
2026-05-04 00:59 27.67198 11.48110 37100 ft 546 kts 104°
2026-05-04 00:59 27.65335 11.56405 37099 ft 546 kts 104°
2026-05-04 01:00 27.63466 11.64708 37100 ft 546 kts 104°
2026-05-04 01:00 27.61607 11.72944 37104 ft 546 kts 104°
2026-05-04 01:01 27.59726 11.81248 37108 ft 547 kts 104°
2026-05-04 01:01 27.57840 11.89552 37101 ft 546 kts 104°
2026-05-04 01:02 27.55949 11.97848 37109 ft 546 kts 104°
2026-05-04 01:02 27.54054 12.06142 37103 ft 546 kts 104°
2026-05-04 01:03 27.52165 12.14384 37106 ft 548 kts 104°
2026-05-04 01:03 27.50255 12.22693 37113 ft 549 kts 105°
2026-05-04 01:04 27.48337 12.31017 37114 ft 549 kts 105°
2026-05-04 01:04 27.46415 12.39331 37117 ft 549 kts 105°
2026-05-04 01:05 27.44500 12.47590 37119 ft 549 kts 105°
2026-05-04 01:05 27.42566 12.55905 37119 ft 549 kts 105°
2026-05-04 01:06 27.40626 12.64224 37114 ft 549 kts 105°
2026-05-04 01:06 27.38682 12.72536 37114 ft 549 kts 105°
2026-05-04 01:07 27.36748 12.80793 37122 ft 550 kts 105°
2026-05-04 01:07 27.34897 12.89138 37120 ft 550 kts 104°
2026-05-04 01:08 27.33093 12.97487 37124 ft 550 kts 104°
2026-05-04 01:08 27.31270 13.05839 37118 ft 550 kts 104°
2026-05-04 01:09 27.29442 13.14125 37117 ft 550 kts 104°
2026-05-04 01:09 27.27593 13.22461 37128 ft 550 kts 104°
2026-05-04 01:10 27.25738 13.30803 37125 ft 550 kts 104°
2026-05-04 01:10 27.23878 13.39141 37125 ft 550 kts 104°
2026-05-04 01:11 27.22014 13.47473 37125 ft 550 kts 104°
2026-05-04 01:11 27.20157 13.55750 37122 ft 550 kts 104°
2026-05-04 01:12 27.18281 13.64084 37129 ft 550 kts 104°
2026-05-04 01:12 27.16401 13.72413 37122 ft 550 kts 105°
2026-05-04 01:13 27.14517 13.80739 37129 ft 550 kts 105°
2026-05-04 01:13 27.12627 13.89066 37124 ft 550 kts 105°
2026-05-04 01:14 27.10747 13.97324 37127 ft 550 kts 105°
2026-05-04 01:14 27.08846 14.05643 37127 ft 550 kts 105°
2026-05-04 01:15 27.06944 14.13952 37127 ft 550 kts 105°
2026-05-04 01:15 27.05035 14.22263 37127 ft 550 kts 105°
2026-05-04 01:16 27.03135 14.30511 37127 ft 550 kts 105°
2026-05-04 01:16 27.00953 14.38710 37128 ft 548 kts 115°
2026-05-04 01:16 26.99194 14.42480 37130 ft 543 kts 126°
2026-05-04 01:17 26.96902 14.45809 37130 ft 537 kts 137°
2026-05-04 01:17 26.94140 14.48579 37127 ft 529 kts 149°
2026-05-04 01:17 26.91039 14.50737 37133 ft 523 kts 157°
2026-05-04 01:18 26.84606 14.54402 37131 ft 522 kts 160°
2026-05-04 01:18 26.78059 14.57913 37127 ft 522 kts 160°
2026-05-04 01:19 26.71522 14.61447 37124 ft 522 kts 160°
2026-05-04 01:19 26.64996 14.65021 37119 ft 522 kts 159°
2026-05-04 01:20 26.58479 14.68602 37125 ft 522 kts 159°
2026-05-04 01:20 26.51995 14.72163 37122 ft 522 kts 159°
2026-05-04 01:21 26.45472 14.75738 37118 ft 522 kts 159°
2026-05-04 01:21 26.38948 14.79308 37093 ft 522 kts 160°
2026-05-04 01:22 26.32409 14.82880 37107 ft 523 kts 160°
2026-05-04 01:22 26.25914 14.86425 37126 ft 523 kts 160°
2026-05-04 01:23 26.19378 14.89988 37118 ft 523 kts 160°
2026-05-04 01:23 26.12835 14.93551 37116 ft 523 kts 160°
2026-05-04 01:24 26.06293 14.97108 37110 ft 524 kts 160°
2026-05-04 01:24 25.99731 15.00670 37112 ft 525 kts 160°
2026-05-04 01:25 25.93208 15.04208 37113 ft 526 kts 160°
2026-05-04 01:25 25.86633 15.07771 37113 ft 526 kts 160°
2026-05-04 01:26 25.80062 15.11326 37112 ft 526 kts 160°
2026-05-04 01:26 25.73486 15.14880 37105 ft 526 kts 161°
2026-05-04 01:27 25.66951 15.18406 37109 ft 526 kts 161°
2026-05-04 01:27 25.60370 15.21953 37110 ft 526 kts 161°
2026-05-04 01:28 25.53790 15.25496 37108 ft 526 kts 161°
2026-05-04 01:28 25.47207 15.29036 37113 ft 526 kts 161°
2026-05-04 01:29 25.40618 15.32575 37106 ft 526 kts 161°
2026-05-04 01:29 25.34077 15.36083 37113 ft 526 kts 161°
2026-05-04 01:30 25.27492 15.39611 37112 ft 526 kts 161°
2026-05-04 01:30 25.20901 15.43137 37116 ft 526 kts 161°
2026-05-04 01:31 25.14315 15.46658 37116 ft 526 kts 161°
2026-05-04 01:31 25.07767 15.50153 37112 ft 526 kts 161°
2026-05-04 01:32 25.01181 15.53664 37109 ft 526 kts 161°
2026-05-04 01:32 24.94588 15.57175 37113 ft 526 kts 161°
2026-05-04 01:33 24.87999 15.60680 37105 ft 526 kts 161°
2026-05-04 01:33 24.81406 15.64185 37115 ft 526 kts 161°
2026-05-04 01:34 24.74861 15.67678 37113 ft 526 kts 161°
2026-05-04 01:34 24.68277 15.71195 37113 ft 526 kts 161°
2026-05-04 01:35 24.61695 15.74705 37110 ft 526 kts 161°
2026-05-04 01:35 24.55105 15.78213 37112 ft 526 kts 161°
2026-05-04 01:36 24.48561 15.81692 37111 ft 526 kts 161°
2026-05-04 01:36 24.41975 15.85189 37108 ft 526 kts 161°
2026-05-04 01:37 24.35388 15.88683 37105 ft 526 kts 161°
2026-05-04 01:37 24.28801 15.92172 37105 ft 526 kts 161°
2026-05-04 01:38 24.22215 15.95657 37110 ft 526 kts 161°
2026-05-04 01:38 24.15674 15.99114 37102 ft 526 kts 161°
2026-05-04 01:39 24.09088 16.02591 37108 ft 525 kts 161°
2026-05-04 01:39 24.02506 16.06062 37108 ft 525 kts 161°
2026-05-04 01:40 23.95927 16.09527 37109 ft 525 kts 161°
2026-05-04 01:40 23.89344 16.12991 37108 ft 525 kts 161°
2026-05-04 01:41 23.82803 16.16428 37108 ft 525 kts 161°
2026-05-04 01:41 23.76223 16.19882 37102 ft 525 kts 161°
2026-05-04 01:42 23.69637 16.23335 37103 ft 525 kts 161°
2026-05-04 01:42 23.63058 16.26781 37100 ft 525 kts 161°
2026-05-04 01:43 23.56515 16.30205 37097 ft 525 kts 161°
2026-05-04 01:43 23.49931 16.33645 37078 ft 525 kts 161°
2026-05-04 01:44 23.43352 16.37081 37098 ft 524 kts 161°
2026-05-04 01:44 23.36773 16.40511 37094 ft 524 kts 161°
2026-05-04 01:45 23.30237 16.43915 37095 ft 524 kts 161°
2026-05-04 01:45 23.20373 16.49045 37088 ft 524 kts 161°
2026-05-04 01:46 23.13792 16.52464 37088 ft 524 kts 162°
2026-05-04 01:46 23.07216 16.55876 37087 ft 524 kts 162°
2026-05-04 01:47 23.00682 16.59262 37085 ft 524 kts 162°
2026-05-04 01:47 22.94105 16.62667 37083 ft 524 kts 162°
2026-05-04 01:48 22.87521 16.66072 37086 ft 524 kts 162°
2026-05-04 01:48 22.80942 16.69471 37081 ft 524 kts 162°
2026-05-04 01:49 22.74395 16.72849 37074 ft 525 kts 162°
2026-05-04 01:49 22.67809 16.76244 37087 ft 524 kts 162°
2026-05-04 01:50 22.61219 16.79639 37079 ft 524 kts 162°
2026-05-04 01:50 22.54629 16.83029 37075 ft 524 kts 162°
2026-05-04 01:51 22.48085 16.86391 37076 ft 524 kts 162°
2026-05-04 01:51 22.41499 16.89772 37080 ft 524 kts 162°
2026-05-04 01:52 22.34911 16.93150 37078 ft 524 kts 162°
2026-05-04 01:52 22.28317 16.96528 37080 ft 524 kts 162°
2026-05-04 01:53 22.21771 16.99878 37080 ft 524 kts 163°
2026-05-04 01:53 22.15184 17.03245 37067 ft 523 kts 163°
2026-05-04 01:54 22.08616 17.06601 37072 ft 522 kts 163°
2026-05-04 01:54 22.02046 17.09951 37073 ft 522 kts 163°
2026-05-04 01:55 21.95518 17.13265 37075 ft 522 kts 163°
2026-05-04 01:55 21.88943 17.16560 37071 ft 521 kts 163°
2026-05-04 01:56 21.82362 17.19850 37083 ft 520 kts 163°
2026-05-04 01:56 21.75817 17.23126 37082 ft 518 kts 163°
2026-05-04 01:57 21.69286 17.26394 37062 ft 518 kts 163°
2026-05-04 01:57 21.62801 17.29635 37063 ft 518 kts 163°
2026-05-04 01:58 21.56271 17.32900 37068 ft 517 kts 163°
2026-05-04 01:58 21.49742 17.36159 37059 ft 516 kts 163°
2026-05-04 01:59 21.43251 17.39403 37078 ft 514 kts 163°
2026-05-04 01:59 21.36806 17.42607 37082 ft 515 kts 163°
2026-05-04 02:00 21.30305 17.45837 37082 ft 515 kts 163°
2026-05-04 02:00 21.23805 17.49067 37087 ft 515 kts 163°
2026-05-04 02:01 21.17305 17.52295 37080 ft 515 kts 162°
2026-05-04 02:01 21.10805 17.55521 37095 ft 515 kts 162°
2026-05-04 02:02 21.04354 17.58718 37097 ft 514 kts 162°
2026-05-04 02:02 20.97859 17.61933 37086 ft 515 kts 162°
2026-05-04 02:03 20.91359 17.65149 37086 ft 515 kts 162°
2026-05-04 02:03 20.84858 17.68362 37058 ft 514 kts 162°
2026-05-04 02:04 20.78396 17.71551 37075 ft 516 kts 162°
2026-05-04 02:04 20.71879 17.74766 37073 ft 516 kts 162°
2026-05-04 02:05 20.65352 17.77983 37067 ft 518 kts 162°
2026-05-04 02:05 20.58814 17.81202 37055 ft 517 kts 162°
2026-05-04 02:06 20.52319 17.84396 37047 ft 517 kts 162°
2026-05-04 02:06 20.45783 17.87608 37020 ft 517 kts 162°
2026-05-04 02:07 20.39249 17.90816 37028 ft 517 kts 162°
2026-05-04 02:07 20.32704 17.94025 37026 ft 518 kts 162°
2026-05-04 02:08 20.26205 17.97209 37010 ft 518 kts 162°
2026-05-04 02:08 20.19664 18.00412 37007 ft 517 kts 162°
2026-05-04 02:09 20.12946 18.02817 37017 ft 504 kts 174°
2026-05-04 02:09 20.06103 18.04405 37019 ft 502 kts 176°
2026-05-04 02:10 19.99253 18.05854 37000 ft 502 kts 176°
2026-05-04 02:10 19.92450 18.07290 36988 ft 502 kts 176°
2026-05-04 02:11 19.85600 18.08755 36967 ft 502 kts 176°
2026-05-04 02:11 19.78741 18.10230 36972 ft 503 kts 176°
2026-05-04 02:12 19.73047 18.11457 36969 ft 503 kts 176°
2026-05-04 02:12 19.65079 18.13171 36955 ft 503 kts 176°
2026-05-04 02:13 19.58236 18.14640 36956 ft 502 kts 176°
2026-05-04 02:13 19.51387 18.16107 36940 ft 502 kts 176°
2026-05-04 02:14 19.45684 18.17329 36955 ft 503 kts 176°
2026-05-04 02:14 19.38824 18.18798 36939 ft 503 kts 176°
2026-05-04 02:15 19.31955 18.20269 36931 ft 503 kts 176°
2026-05-04 02:15 19.25096 18.21736 36932 ft 503 kts 176°
2026-05-04 02:16 19.18277 18.23192 36919 ft 503 kts 175°
2026-05-04 02:16 19.11416 18.24656 36927 ft 503 kts 175°
2026-05-04 02:17 19.04554 18.26119 36925 ft 503 kts 175°
2026-05-04 02:17 18.97692 18.27581 36924 ft 503 kts 175°
2026-05-04 02:18 18.90833 18.29041 36928 ft 503 kts 175°
2026-05-04 02:18 18.84020 18.30490 36919 ft 503 kts 175°
2026-05-04 02:19 18.77153 18.31948 36926 ft 503 kts 175°
2026-05-04 02:19 18.70289 18.33406 36923 ft 503 kts 175°
2026-05-04 02:20 18.63424 18.34862 36939 ft 503 kts 175°
2026-05-04 02:20 18.56607 18.36307 36919 ft 503 kts 175°
2026-05-04 02:21 18.49744 18.37761 36925 ft 503 kts 174°
2026-05-04 02:21 18.42893 18.39212 36906 ft 502 kts 174°
2026-05-04 02:22 18.36036 18.40662 36916 ft 502 kts 174°
2026-05-04 02:22 18.29180 18.42110 36909 ft 502 kts 174°
2026-05-04 02:23 18.22373 18.43548 36908 ft 502 kts 174°
2026-05-04 02:23 18.15521 18.44993 36899 ft 501 kts 174°
2026-05-04 02:24 18.08690 18.46434 36902 ft 501 kts 174°
2026-05-04 02:24 18.01858 18.47873 36900 ft 500 kts 174°
2026-05-04 02:25 17.95079 18.49299 36898 ft 500 kts 174°
2026-05-04 02:25 17.88253 18.50735 36894 ft 500 kts 174°
2026-05-04 02:26 17.81426 18.52169 36894 ft 500 kts 174°
2026-05-04 02:26 17.74608 18.53601 36887 ft 500 kts 174°
2026-05-04 02:27 17.67839 18.55021 36893 ft 500 kts 174°
2026-05-04 02:27 17.61019 18.56450 36887 ft 500 kts 174°
2026-05-04 02:28 17.54201 18.57879 36884 ft 500 kts 174°
2026-05-04 02:28 17.47376 18.59307 36884 ft 500 kts 174°
2026-05-04 02:29 17.40597 18.60724 36882 ft 500 kts 174°
2026-05-04 02:29 17.33775 18.62151 36885 ft 500 kts 174°
2026-05-04 02:30 17.26946 18.63577 36886 ft 500 kts 174°
2026-05-04 02:30 17.20118 18.65002 36882 ft 500 kts 174°
2026-05-04 02:31 17.13294 18.66425 36880 ft 500 kts 174°
2026-05-04 02:31 17.06509 18.67839 36878 ft 500 kts 174°
2026-05-04 02:32 16.99684 18.69260 36874 ft 500 kts 174°
2026-05-04 02:32 16.92851 18.70681 36873 ft 500 kts 174°
2026-05-04 02:33 16.86025 18.72100 36866 ft 500 kts 174°
2026-05-04 02:33 16.79239 18.73509 36876 ft 501 kts 174°
2026-05-04 02:34 16.72398 18.74930 36872 ft 501 kts 174°
2026-05-04 02:34 16.65557 18.76350 36872 ft 501 kts 174°
2026-05-04 02:35 16.58717 18.77767 36869 ft 501 kts 174°
2026-05-04 02:35 16.51871 18.79185 36859 ft 502 kts 173°
2026-05-04 02:36 16.45064 18.80593 36867 ft 503 kts 173°
2026-05-04 02:36 16.38202 18.82013 36867 ft 503 kts 173°
2026-05-04 02:37 16.31338 18.83432 36864 ft 503 kts 173°
2026-05-04 02:37 16.24475 18.84850 36867 ft 503 kts 173°
2026-05-04 02:38 16.17657 18.86257 36850 ft 503 kts 173°
2026-05-04 02:38 16.10785 18.87674 36861 ft 504 kts 173°
2026-05-04 02:39 16.03910 18.89091 36857 ft 504 kts 173°
2026-05-04 02:39 15.97026 18.90510 36861 ft 504 kts 173°
2026-05-04 02:40 15.90195 18.91916 36858 ft 504 kts 173°
2026-05-04 02:40 15.83311 18.93332 36848 ft 504 kts 173°
2026-05-04 02:41 15.76432 18.94745 36855 ft 504 kts 173°
2026-05-04 02:41 15.69542 18.96161 36856 ft 505 kts 173°
2026-05-04 02:42 15.62657 18.97574 36851 ft 505 kts 173°
2026-05-04 02:42 15.55812 18.98978 36855 ft 505 kts 173°
2026-05-04 02:43 15.48924 19.00390 36847 ft 504 kts 172°
2026-05-04 02:43 15.42037 19.01801 36848 ft 505 kts 172°
2026-05-04 02:44 15.35152 19.03210 36862 ft 504 kts 172°
2026-05-04 02:44 15.28307 19.04611 36849 ft 504 kts 172°
2026-05-04 02:45 15.21420 19.06018 36843 ft 504 kts 172°
2026-05-04 02:45 15.14536 19.07425 36840 ft 504 kts 172°
2026-05-04 02:46 15.07651 19.08830 36841 ft 504 kts 172°
2026-05-04 02:46 15.00774 19.10233 36856 ft 504 kts 172°
2026-05-04 02:47 14.93941 19.11626 36849 ft 504 kts 172°
2026-05-04 02:47 14.87057 19.13029 36856 ft 505 kts 172°
2026-05-04 02:48 14.80162 19.14433 36850 ft 505 kts 172°
2026-05-04 02:48 14.73312 19.15825 36845 ft 505 kts 172°
2026-05-04 02:49 14.66421 19.17225 36847 ft 505 kts 172°
2026-05-04 02:49 14.59531 19.18624 36854 ft 505 kts 172°
2026-05-04 02:50 14.52641 19.20022 36848 ft 505 kts 172°
2026-05-04 02:50 14.45748 19.21420 36846 ft 505 kts 172°
2026-05-04 02:51 14.38899 19.22808 36847 ft 505 kts 172°
2026-05-04 02:51 14.32002 19.24205 36850 ft 505 kts 172°
2026-05-04 02:52 14.25107 19.25601 36845 ft 505 kts 172°
2026-05-04 02:52 14.18208 19.26997 36857 ft 505 kts 172°
2026-05-04 02:53 14.11311 19.28391 36846 ft 505 kts 172°
2026-05-04 02:53 14.04465 19.29774 36851 ft 505 kts 172°
2026-05-04 02:54 13.97576 19.31166 36854 ft 504 kts 172°
2026-05-04 02:54 13.90689 19.32556 36856 ft 504 kts 172°
2026-05-04 02:55 13.80358 19.34644 36850 ft 504 kts 172°
2026-05-04 02:56 13.73518 19.36020 36850 ft 504 kts 172°
2026-05-04 02:56 13.66633 19.37406 36852 ft 504 kts 172°
2026-05-04 02:57 13.59740 19.38794 36850 ft 504 kts 172°
2026-05-04 02:57 13.52856 19.40180 36849 ft 504 kts 172°
2026-05-04 02:58 13.46010 19.41557 36852 ft 504 kts 172°
2026-05-04 02:58 13.39123 19.42941 36849 ft 504 kts 171°
2026-05-04 02:59 13.32238 19.44324 36848 ft 504 kts 171°
2026-05-04 02:59 13.25351 19.45707 36851 ft 504 kts 172°
2026-05-04 03:00 13.18458 19.47090 36850 ft 505 kts 171°
2026-05-04 03:00 13.11604 19.48465 36850 ft 505 kts 171°
2026-05-04 03:01 13.04702 19.49848 36852 ft 505 kts 171°
2026-05-04 03:01 12.97808 19.51229 36852 ft 505 kts 171°
2026-05-04 03:02 12.90912 19.52614 36852 ft 505 kts 171°
2026-05-04 03:02 12.84062 19.53983 36850 ft 505 kts 171°
2026-05-04 03:03 12.77167 19.55360 36853 ft 505 kts 171°
2026-05-04 03:03 12.70271 19.56737 36848 ft 505 kts 171°
2026-05-04 03:04 12.63379 19.58114 36850 ft 505 kts 171°
2026-05-04 03:04 12.56486 19.59490 36853 ft 505 kts 171°
2026-05-04 03:05 12.49592 19.60866 36854 ft 505 kts 171°
2026-05-04 03:05 12.42741 19.62232 36856 ft 505 kts 171°
2026-05-04 03:06 12.35848 19.63606 36855 ft 505 kts 171°
2026-05-04 03:06 12.28949 19.64981 36857 ft 505 kts 171°
2026-05-04 03:07 12.22059 19.66353 36856 ft 505 kts 171°
2026-05-04 03:07 12.15204 19.67717 36857 ft 505 kts 171°
2026-05-04 03:08 12.08309 19.69088 36857 ft 505 kts 171°
2026-05-04 03:08 12.01414 19.70459 36856 ft 505 kts 171°
2026-05-04 03:09 11.94517 19.71829 36855 ft 505 kts 171°
2026-05-04 03:09 11.87622 19.73199 36856 ft 505 kts 171°
2026-05-04 03:10 11.80779 19.74557 36860 ft 505 kts 171°
2026-05-04 03:10 11.73882 19.75925 36862 ft 505 kts 171°
2026-05-04 03:11 11.66985 19.77293 36861 ft 505 kts 170°
2026-05-04 03:11 11.60102 19.78714 36864 ft 505 kts 168°
2026-05-04 03:12 11.53318 19.80389 36859 ft 505 kts 167°
2026-05-04 03:12 11.46489 19.82120 36864 ft 506 kts 167°
2026-05-04 03:13 11.39654 19.83815 36864 ft 506 kts 168°
2026-05-04 03:13 11.32813 19.85484 36864 ft 506 kts 167°
2026-05-04 03:14 11.26008 19.87137 36865 ft 506 kts 168°
2026-05-04 03:14 11.19160 19.88801 36864 ft 506 kts 168°
2026-05-04 03:15 11.12311 19.90465 36866 ft 506 kts 168°
2026-05-04 03:15 11.05460 19.92129 36868 ft 506 kts 168°
2026-05-04 03:16 10.98612 19.93793 36868 ft 506 kts 167°
2026-05-04 03:16 10.91803 19.95445 36868 ft 506 kts 167°
2026-05-04 03:17 10.84951 19.97108 36867 ft 506 kts 167°
2026-05-04 03:17 10.78099 19.98769 36868 ft 506 kts 167°
2026-05-04 03:18 10.71250 20.00430 36869 ft 506 kts 167°
2026-05-04 03:18 10.64437 20.02080 36870 ft 506 kts 167°
2026-05-04 03:19 10.57591 20.03738 36871 ft 505 kts 167°
2026-05-04 03:19 10.50753 20.05393 36870 ft 505 kts 167°
2026-05-04 03:20 10.43914 20.07048 36873 ft 505 kts 167°
2026-05-04 03:20 10.37123 20.08690 36872 ft 505 kts 167°
2026-05-04 03:21 10.30280 20.10344 36872 ft 505 kts 167°
2026-05-04 03:21 10.23443 20.11996 36872 ft 505 kts 167°
2026-05-04 03:22 10.16604 20.13648 36873 ft 505 kts 167°
2026-05-04 03:22 10.09807 20.15288 36873 ft 506 kts 167°
2026-05-04 03:23 10.02955 20.16942 36875 ft 506 kts 167°
2026-05-04 03:23 9.96099 20.18595 36875 ft 506 kts 167°
2026-05-04 03:24 9.89242 20.20248 36878 ft 506 kts 167°
2026-05-04 03:24 9.82390 20.21900 36879 ft 506 kts 167°
2026-05-04 03:25 9.75581 20.23540 36878 ft 506 kts 167°
2026-05-04 03:25 9.68726 20.25191 36878 ft 506 kts 167°
2026-05-04 03:26 9.61867 20.26841 36878 ft 506 kts 167°
2026-05-04 03:26 9.55016 20.28489 36879 ft 506 kts 167°
2026-05-04 03:27 9.48167 20.30137 36878 ft 505 kts 167°
2026-05-04 03:27 9.41370 20.31771 36878 ft 505 kts 167°
2026-05-04 03:28 9.34528 20.33414 36878 ft 505 kts 167°
2026-05-04 03:28 9.27687 20.35057 36876 ft 505 kts 167°
2026-05-04 03:29 9.20840 20.36700 36875 ft 505 kts 166°
2026-05-04 03:29 9.14048 20.38330 36876 ft 505 kts 166°
2026-05-04 03:30 9.07215 20.39970 36876 ft 505 kts 166°
2026-05-04 03:30 9.00378 20.41609 36878 ft 505 kts 167°
2026-05-04 03:31 8.93540 20.43248 36880 ft 505 kts 167°
2026-05-04 03:31 8.86708 20.44885 36878 ft 505 kts 166°
2026-05-04 03:32 8.79902 20.46515 36887 ft 507 kts 166°
2026-05-04 03:32 8.73044 20.48157 36883 ft 506 kts 166°
2026-05-04 03:33 8.66186 20.49798 36893 ft 507 kts 166°
2026-05-04 03:33 8.59328 20.51439 36892 ft 507 kts 166°
2026-05-04 03:34 8.52515 20.53068 36892 ft 506 kts 166°
2026-05-04 03:34 8.45666 20.54705 36897 ft 506 kts 166°
2026-05-04 03:35 8.38816 20.56343 36896 ft 506 kts 166°
2026-05-04 03:35 8.31971 20.57978 36898 ft 505 kts 166°
2026-05-04 03:36 8.25128 20.59612 36900 ft 506 kts 166°
2026-05-04 03:36 8.18325 20.61236 36908 ft 506 kts 166°
2026-05-04 03:37 8.11481 20.62869 36908 ft 504 kts 166°
2026-05-04 03:37 8.04657 20.64497 36908 ft 504 kts 166°
2026-05-04 03:38 7.97834 20.66124 36908 ft 504 kts 166°
2026-05-04 03:38 7.91055 20.67737 36916 ft 504 kts 166°
2026-05-04 03:39 7.84230 20.69359 36915 ft 504 kts 166°
2026-05-04 03:39 7.77406 20.70980 36919 ft 503 kts 166°
2026-05-04 03:40 7.70599 20.72597 36919 ft 502 kts 166°
2026-05-04 03:40 7.63797 20.74213 36928 ft 502 kts 166°
2026-05-04 03:41 7.57042 20.75817 36924 ft 502 kts 166°
2026-05-04 03:41 7.50243 20.77431 36928 ft 502 kts 166°
2026-05-04 03:42 7.43440 20.79046 36931 ft 502 kts 166°
2026-05-04 03:42 7.36648 20.80657 36930 ft 501 kts 166°
2026-05-04 03:43 7.29868 20.82265 36927 ft 501 kts 166°
2026-05-04 03:43 7.23131 20.83862 36927 ft 500 kts 166°
2026-05-04 03:44 7.16355 20.85468 36930 ft 500 kts 166°
2026-05-04 03:44 7.09579 20.87081 36932 ft 500 kts 166°
2026-05-04 03:45 7.02800 20.88695 36928 ft 500 kts 166°
2026-05-04 03:45 6.96075 20.90295 36928 ft 500 kts 166°
2026-05-04 03:46 6.89299 20.91905 36930 ft 500 kts 166°
2026-05-04 03:46 6.82523 20.93515 36930 ft 500 kts 166°
2026-05-04 03:47 6.75748 20.95124 36930 ft 500 kts 166°
2026-05-04 03:47 6.69018 20.96722 36930 ft 500 kts 166°
2026-05-04 03:48 6.62244 20.98330 36930 ft 500 kts 166°
2026-05-04 03:48 6.55468 20.99938 36931 ft 501 kts 166°
2026-05-04 03:49 6.48701 21.01594 36933 ft 500 kts 165°
2026-05-04 03:49 6.41998 21.03292 36933 ft 500 kts 165°
2026-05-04 03:50 6.35252 21.04997 36937 ft 500 kts 165°
2026-05-04 03:50 6.28506 21.06691 36936 ft 499 kts 165°
2026-05-04 03:51 6.21764 21.08379 36930 ft 499 kts 165°
2026-05-04 03:51 6.15024 21.10066 36931 ft 499 kts 165°
2026-05-04 03:52 6.08322 21.11743 36930 ft 499 kts 165°
2026-05-04 03:52 6.01585 21.13428 36934 ft 499 kts 165°
2026-05-04 03:53 5.94844 21.15114 36933 ft 499 kts 165°
2026-05-04 03:53 5.88106 21.16799 36929 ft 499 kts 165°
2026-05-04 03:54 5.81415 21.18472 36932 ft 499 kts 165°
2026-05-04 03:54 5.74683 21.20154 36935 ft 499 kts 165°
2026-05-04 03:55 5.67949 21.21837 36931 ft 499 kts 165°
2026-05-04 03:55 5.61223 21.23517 36936 ft 498 kts 165°
2026-05-04 03:56 5.54545 21.25185 36937 ft 497 kts 165°
2026-05-04 03:56 5.47832 21.26862 36936 ft 498 kts 165°
2026-05-04 03:57 5.41115 21.28538 36936 ft 498 kts 165°
2026-05-04 03:57 5.34390 21.30217 36938 ft 498 kts 165°
2026-05-04 03:58 5.24304 21.32733 36935 ft 498 kts 165°
2026-05-04 03:58 5.17624 21.34400 36935 ft 498 kts 165°
2026-05-04 03:59 5.10896 21.36078 36941 ft 498 kts 165°
2026-05-04 03:59 5.04170 21.37758 36938 ft 498 kts 165°
2026-05-04 04:00 4.97440 21.39436 36939 ft 498 kts 165°
2026-05-04 04:00 4.90705 21.41112 36942 ft 499 kts 165°
2026-05-04 04:01 4.84017 21.42777 36937 ft 499 kts 165°
2026-05-04 04:01 4.77275 21.44457 36936 ft 499 kts 165°
2026-05-04 04:02 4.70537 21.46135 36939 ft 499 kts 165°
2026-05-04 04:02 4.63796 21.47814 36941 ft 499 kts 165°
2026-05-04 04:03 4.57103 21.49481 36941 ft 499 kts 165°
2026-05-04 04:03 4.50361 21.51159 36939 ft 499 kts 165°
2026-05-04 04:04 4.43616 21.52837 36938 ft 499 kts 165°
2026-05-04 04:04 4.36875 21.54515 36940 ft 499 kts 165°
2026-05-04 04:05 4.30133 21.56192 36939 ft 499 kts 165°
2026-05-04 04:05 4.23437 21.57860 36935 ft 499 kts 165°
2026-05-04 04:06 4.16696 21.59538 36939 ft 499 kts 165°
2026-05-04 04:06 4.09958 21.61211 36939 ft 499 kts 165°
2026-05-04 04:07 4.03214 21.62886 36937 ft 499 kts 165°
2026-05-04 04:07 3.96476 21.64561 36935 ft 499 kts 165°
2026-05-04 04:08 3.89783 21.66225 36938 ft 499 kts 165°
2026-05-04 04:08 3.83046 21.67898 36940 ft 498 kts 165°
2026-05-04 04:09 3.76320 21.69570 36939 ft 498 kts 165°
2026-05-04 04:09 3.69588 21.71242 36938 ft 498 kts 165°
2026-05-04 04:10 3.62906 21.72902 36939 ft 498 kts 165°
2026-05-04 04:10 3.56169 21.74557 36938 ft 499 kts 166°
2026-05-04 04:11 3.49362 21.75901 36940 ft 499 kts 169°
2026-05-04 04:11 3.42527 21.77133 36940 ft 499 kts 168°
2026-05-04 04:12 3.35703 21.78403 36937 ft 499 kts 168°
2026-05-04 04:12 3.28933 21.79702 36932 ft 499 kts 168°
2026-05-04 04:13 3.22114 21.81022 36939 ft 499 kts 168°
2026-05-04 04:13 3.15290 21.82342 36940 ft 500 kts 168°
2026-05-04 04:14 3.08459 21.83662 36936 ft 500 kts 168°
2026-05-04 04:14 3.01683 21.84970 36938 ft 500 kts 168°
2026-05-04 04:15 2.94853 21.86288 36933 ft 500 kts 168°
2026-05-04 04:15 2.88021 21.87606 36934 ft 500 kts 168°
2026-05-04 04:16 2.81192 21.88924 36939 ft 500 kts 168°
2026-05-04 04:16 2.74356 21.90243 36938 ft 501 kts 168°
2026-05-04 04:17 2.67555 21.91555 36937 ft 501 kts 168°
2026-05-04 04:17 2.60706 21.92876 36938 ft 501 kts 168°
2026-05-04 04:18 2.53852 21.94198 36936 ft 501 kts 168°
2026-05-04 04:18 2.47004 21.95519 36931 ft 501 kts 168°
2026-05-04 04:19 2.40194 21.96832 36935 ft 502 kts 168°
2026-05-04 04:19 2.33332 21.98155 36932 ft 502 kts 168°
2026-05-04 04:20 2.26472 21.99477 36935 ft 502 kts 168°
2026-05-04 04:20 2.19612 22.00800 36934 ft 502 kts 168°
2026-05-04 04:21 2.12748 22.02123 36932 ft 502 kts 168°
2026-05-04 04:21 2.05927 22.03433 36928 ft 503 kts 168°
2026-05-04 04:22 1.99054 22.04753 36932 ft 503 kts 168°
2026-05-04 04:22 1.92187 22.06074 36934 ft 503 kts 168°
2026-05-04 04:23 1.85314 22.07398 36934 ft 503 kts 168°
2026-05-04 04:23 1.78447 22.08721 36939 ft 503 kts 168°
2026-05-04 04:24 1.71627 22.10034 36937 ft 503 kts 168°
2026-05-04 04:24 1.64756 22.11357 36940 ft 503 kts 168°
2026-05-04 04:25 1.57885 22.12681 36938 ft 503 kts 168°
2026-05-04 04:25 1.51023 22.14001 36939 ft 502 kts 167°
2026-05-04 04:26 1.44219 22.15312 36941 ft 501 kts 167°
2026-05-04 04:26 1.37368 22.16631 36935 ft 501 kts 167°
2026-05-04 04:27 1.30521 22.17949 36940 ft 501 kts 167°
2026-05-04 04:27 1.23678 22.19270 36937 ft 501 kts 167°
2026-05-04 04:28 1.16834 22.20589 36937 ft 501 kts 167°
2026-05-04 04:28 1.10030 22.21896 36939 ft 501 kts 167°
2026-05-04 04:29 1.03186 22.23213 36945 ft 501 kts 167°
2026-05-04 04:29 0.96341 22.24531 36940 ft 501 kts 167°
2026-05-04 04:30 0.89499 22.25849 36945 ft 501 kts 167°
2026-05-04 04:30 0.82654 22.27167 36946 ft 501 kts 167°
2026-05-04 04:31 0.75858 22.28475 36945 ft 501 kts 167°
2026-05-04 04:31 0.69017 22.29792 36943 ft 501 kts 167°
2026-05-04 04:32 0.62173 22.31112 36942 ft 501 kts 167°
2026-05-04 04:32 0.55335 22.32426 36945 ft 501 kts 167°
2026-05-04 04:33 0.48542 22.33726 36941 ft 501 kts 167°
2026-05-04 04:33 0.41699 22.35036 36945 ft 501 kts 167°
2026-05-04 04:34 0.34857 22.36347 36938 ft 500 kts 167°
2026-05-04 04:34 0.28078 22.37651 36940 ft 499 kts 167°
2026-05-04 04:35 0.21274 22.38965 36943 ft 498 kts 167°
2026-05-04 04:35 0.14463 22.40279 36943 ft 498 kts 167°
2026-05-04 04:36 0.07653 22.41592 36946 ft 498 kts 167°
2026-05-04 04:36 0.02000 22.42684 36945 ft 498 kts 167°
2026-05-04 04:37 -0.12724 22.45518 36941 ft 498 kts 167°
2026-05-04 04:38 -0.18429 22.46614 36943 ft 498 kts 167°
2026-05-04 04:38 -0.25188 22.47914 36944 ft 498 kts 167°
2026-05-04 04:39 -0.31998 22.49224 36944 ft 498 kts 167°
2026-05-04 04:39 -0.39905 22.50747 36944 ft 498 kts 167°
2026-05-04 04:40 -0.45609 22.51844 36941 ft 498 kts 167°
2026-05-04 04:40 -0.52367 22.53144 36942 ft 498 kts 167°
2026-05-04 04:41 -0.59178 22.54455 36939 ft 498 kts 167°
2026-05-04 04:41 -0.65978 22.55763 36938 ft 498 kts 167°
2026-05-04 04:42 -0.72789 22.57074 36941 ft 498 kts 167°
2026-05-04 04:42 -0.79548 22.58375 36941 ft 498 kts 167°
2026-05-04 04:43 -0.86350 22.59684 36938 ft 498 kts 167°
2026-05-04 04:43 -0.93149 22.60997 36938 ft 498 kts 167°
2026-05-04 04:44 -0.99954 22.62304 36942 ft 498 kts 167°
2026-05-04 04:44 -1.06756 22.63612 36940 ft 498 kts 167°
2026-05-04 04:45 -1.13553 22.64920 36939 ft 498 kts 167°
2026-05-04 04:47 -1.37307 22.69492 36935 ft 498 kts 167°
2026-05-04 04:47 -1.44108 22.70802 36936 ft 497 kts 167°
2026-05-04 04:48 -1.50856 22.72101 36935 ft 497 kts 167°
2026-05-04 04:49 -1.67843 22.75372 36937 ft 497 kts 167°
2026-05-04 04:49 -1.74640 22.76681 36936 ft 497 kts 167°
2026-05-04 04:50 -1.81385 22.77981 36936 ft 497 kts 167°
2026-05-04 04:50 -1.88166 22.79286 36937 ft 496 kts 167°
2026-05-04 04:51 -1.94946 22.80592 36936 ft 496 kts 167°
2026-05-04 04:51 -2.01727 22.81899 36936 ft 496 kts 167°
2026-05-04 04:52 -2.08507 22.83205 36936 ft 496 kts 167°
2026-05-04 04:52 -2.15237 22.84501 36936 ft 496 kts 167°
2026-05-04 04:53 -2.22012 22.85807 36939 ft 496 kts 167°
2026-05-04 04:53 -2.28782 22.87111 36938 ft 496 kts 167°
2026-05-04 04:54 -2.35561 22.88418 36935 ft 496 kts 167°
2026-05-04 04:54 -2.42285 22.89714 36935 ft 496 kts 167°
2026-05-04 04:55 -2.49056 22.91020 36937 ft 496 kts 167°
2026-05-04 04:55 -2.55830 22.92325 36944 ft 496 kts 167°
2026-05-04 04:56 -2.62603 22.93630 36941 ft 496 kts 167°
2026-05-04 04:56 -2.69375 22.94936 36941 ft 496 kts 167°
2026-05-04 04:57 -2.76102 22.96234 36944 ft 496 kts 167°
2026-05-04 04:57 -2.82877 22.97541 36942 ft 496 kts 167°
2026-05-04 04:58 -2.89646 22.98847 36941 ft 496 kts 167°
2026-05-04 04:58 -2.96426 23.00155 36941 ft 496 kts 167°
2026-05-04 04:59 -3.03157 23.01453 36944 ft 496 kts 167°
2026-05-04 04:59 -3.09933 23.02761 36941 ft 496 kts 167°
2026-05-04 05:00 -3.16708 23.04069 36945 ft 496 kts 168°
2026-05-04 05:01 -3.26879 23.06032 36940 ft 497 kts 168°
2026-05-04 05:01 -3.33666 23.07342 36940 ft 497 kts 167°
2026-05-04 05:02 -3.40403 23.08643 36938 ft 496 kts 168°
2026-05-04 05:02 -3.47185 23.09953 36938 ft 496 kts 167°
2026-05-04 05:03 -3.53974 23.11264 36936 ft 496 kts 168°
2026-05-04 05:04 -3.67501 23.13877 36941 ft 497 kts 168°
2026-05-04 05:04 -3.74284 23.15188 36940 ft 497 kts 168°
2026-05-04 05:06 -4.01391 23.20428 36940 ft 497 kts 168°
2026-05-04 05:07 -4.08185 23.21714 36937 ft 497 kts 169°
2026-05-04 05:07 -4.15009 23.22863 36940 ft 497 kts 169°
2026-05-04 05:09 -4.45706 23.28041 36937 ft 498 kts 169°
2026-05-04 05:10 -4.52545 23.29207 36935 ft 498 kts 169°
2026-05-04 05:10 -4.59383 23.30372 36940 ft 499 kts 169°
2026-05-04 05:11 -4.66185 23.31532 36940 ft 499 kts 169°
2026-05-04 05:11 -4.73042 23.32701 36938 ft 499 kts 169°
2026-05-04 05:12 -4.79891 23.33869 36933 ft 499 kts 169°
2026-05-04 05:12 -4.86744 23.35038 36938 ft 499 kts 169°
2026-05-04 05:13 -4.93553 23.36200 36941 ft 500 kts 169°
2026-05-04 05:13 -5.00422 23.37372 36943 ft 501 kts 169°
2026-05-04 05:14 -5.07296 23.38544 36940 ft 501 kts 169°
2026-05-04 05:14 -5.14175 23.39720 36940 ft 501 kts 169°
2026-05-04 05:15 -5.21046 23.40895 36942 ft 501 kts 169°
2026-05-04 05:15 -5.27875 23.42059 36942 ft 502 kts 169°
2026-05-04 05:16 -5.34758 23.43233 36947 ft 502 kts 169°
2026-05-04 05:16 -5.41642 23.44409 36947 ft 502 kts 169°
2026-05-04 05:17 -5.48525 23.45585 36947 ft 502 kts 169°
2026-05-04 05:17 -5.55362 23.46754 36947 ft 502 kts 169°
2026-05-04 05:18 -5.62242 23.47945 36946 ft 502 kts 169°
2026-05-04 05:18 -5.69120 23.49136 36946 ft 502 kts 169°
2026-05-04 05:19 -5.75996 23.50327 36949 ft 501 kts 169°
2026-05-04 05:19 -5.82830 23.51511 36949 ft 501 kts 169°
2026-05-04 05:20 -5.89702 23.52701 36952 ft 501 kts 169°
2026-05-04 05:20 -5.96585 23.53894 36952 ft 502 kts 169°
2026-05-04 05:21 -6.03458 23.55085 36952 ft 501 kts 169°
2026-05-04 05:21 -6.10338 23.56278 36952 ft 501 kts 169°
2026-05-04 05:22 -6.17127 23.57645 36955 ft 501 kts 165°
2026-05-04 05:22 -6.23866 23.59416 36955 ft 501 kts 164°
2026-05-04 05:23 -6.30600 23.61201 36957 ft 501 kts 164°
2026-05-04 05:23 -6.37352 23.62924 36958 ft 500 kts 165°
2026-05-04 05:24 -6.44065 23.64605 36961 ft 501 kts 165°
2026-05-04 05:24 -6.50824 23.66291 36960 ft 501 kts 165°
2026-05-04 05:25 -6.57583 23.67980 36966 ft 501 kts 165°
2026-05-04 05:25 -6.64340 23.69670 36965 ft 500 kts 165°
2026-05-04 05:26 -6.71057 23.71352 36971 ft 500 kts 165°
2026-05-04 05:26 -6.77808 23.73043 36971 ft 500 kts 165°
2026-05-04 05:28 -7.04798 23.79807 36977 ft 501 kts 165°
2026-05-04 05:29 -7.11565 23.81504 36977 ft 501 kts 165°
2026-05-04 05:29 -7.18337 23.83203 36977 ft 501 kts 165°
2026-05-04 05:31 -7.45474 23.89591 36988 ft 502 kts 166°
2026-05-04 05:32 -7.52282 23.91145 36993 ft 502 kts 166°
2026-05-04 05:33 -7.62443 23.93479 36994 ft 502 kts 166°
2026-05-04 05:33 -7.69254 23.95045 36996 ft 502 kts 166°
2026-05-04 05:34 -7.76065 23.96611 36997 ft 502 kts 166°
2026-05-04 05:34 -7.82879 23.98177 37002 ft 502 kts 166°
2026-05-04 05:35 -7.89692 23.99743 37000 ft 502 kts 166°
2026-05-04 05:35 -7.96460 24.01300 37001 ft 502 kts 166°
2026-05-04 05:36 -8.03276 24.02868 37001 ft 502 kts 166°
2026-05-04 05:36 -8.10059 24.04559 37007 ft 502 kts 164°
2026-05-04 05:37 -8.16802 24.06416 37007 ft 502 kts 163°
2026-05-04 05:37 -8.23552 24.08269 37012 ft 503 kts 163°
2026-05-04 05:38 -8.33648 24.10991 37014 ft 503 kts 164°
2026-05-04 05:38 -8.40422 24.12805 37015 ft 504 kts 164°
2026-05-04 05:39 -8.50585 24.15530 37018 ft 504 kts 164°
2026-05-04 05:40 -8.60701 24.18247 37023 ft 504 kts 164°
2026-05-04 05:40 -8.67477 24.20068 37023 ft 504 kts 164°
2026-05-04 05:41 -8.74253 24.21889 37023 ft 504 kts 164°
2026-05-04 05:41 -8.81041 24.23714 37023 ft 504 kts 164°
2026-05-04 05:42 -8.87776 24.25525 37025 ft 504 kts 164°
2026-05-04 05:42 -8.94556 24.27349 37026 ft 504 kts 164°
2026-05-04 05:43 -9.01342 24.29176 37029 ft 505 kts 164°
2026-05-04 05:45 -9.28476 24.36392 37026 ft 505 kts 165°
2026-05-04 05:47 -9.55719 24.43281 37023 ft 506 kts 165°
2026-05-04 05:47 -9.62540 24.45018 37023 ft 506 kts 165°
2026-05-04 05:48 -9.69367 24.46758 37029 ft 506 kts 165°
2026-05-04 05:48 -9.76148 24.48486 37028 ft 506 kts 165°
2026-05-04 05:49 -9.82975 24.50226 37031 ft 506 kts 165°
2026-05-04 05:49 -9.89807 24.51969 37029 ft 506 kts 165°
2026-05-04 05:51 -10.17099 24.58945 37034 ft 507 kts 165°
2026-05-04 05:52 -10.23942 24.60696 37042 ft 507 kts 165°
2026-05-04 05:52 -10.30786 24.62448 37053 ft 507 kts 165°
2026-05-04 05:54 -10.58093 24.69450 37058 ft 507 kts 165°
2026-05-04 05:55 -10.64887 24.71194 37057 ft 507 kts 165°
2026-05-04 05:55 -10.71723 24.72950 37068 ft 507 kts 165°
2026-05-04 05:56 -10.78559 24.74707 37064 ft 507 kts 165°
2026-05-04 05:56 -10.85397 24.76464 37079 ft 507 kts 165°
2026-05-04 05:57 -10.92191 24.78212 37072 ft 507 kts 165°
2026-05-04 05:57 -10.99027 24.79971 37084 ft 507 kts 166°
2026-05-04 05:58 -11.05868 24.81731 37086 ft 507 kts 166°
2026-05-04 05:58 -11.12716 24.83495 37094 ft 508 kts 165°
2026-05-04 05:59 -11.19562 24.85259 37094 ft 507 kts 166°
2026-05-04 05:59 -11.26361 24.87012 37102 ft 508 kts 165°
2026-05-04 06:00 -11.33208 24.88778 37103 ft 507 kts 166°
2026-05-04 06:00 -11.40054 24.90544 37109 ft 507 kts 166°
2026-05-04 06:01 -11.46893 24.92310 37107 ft 507 kts 166°
2026-05-04 06:03 -11.74213 24.99366 37117 ft 507 kts 166°
2026-05-04 06:05 -12.05032 25.07341 37116 ft 508 kts 166°
2026-05-04 06:06 -12.11883 25.09117 37117 ft 508 kts 166°
2026-05-04 06:06 -12.18734 25.10893 37112 ft 507 kts 166°
2026-05-04 06:07 -12.25532 25.12657 37112 ft 508 kts 166°
2026-05-04 06:07 -12.32376 25.14432 37112 ft 507 kts 166°
2026-05-04 06:08 -12.39202 25.16205 37116 ft 506 kts 166°
2026-05-04 06:08 -12.46024 25.17977 37116 ft 506 kts 166°
2026-05-04 06:09 -12.52807 25.19741 37115 ft 506 kts 166°
2026-05-04 06:11 -12.80108 25.26847 37112 ft 506 kts 166°
2026-05-04 06:13 -13.07394 25.33966 37110 ft 508 kts 166°
2026-05-04 06:14 -13.31345 25.40228 37114 ft 508 kts 166°
2026-05-04 06:15 -13.38182 25.42018 37115 ft 507 kts 166°
2026-05-04 06:15 -13.44980 25.43801 37115 ft 508 kts 166°
2026-05-04 06:16 -13.51826 25.45599 37118 ft 507 kts 166°
2026-05-04 06:16 -13.58671 25.47393 37119 ft 508 kts 166°
2026-05-04 06:17 -13.65501 25.49186 37118 ft 506 kts 166°
2026-05-04 06:17 -13.72285 25.50969 37120 ft 507 kts 166°
2026-05-04 06:18 -13.79121 25.52766 37125 ft 507 kts 166°
2026-05-04 06:20 -14.06396 25.59950 37128 ft 507 kts 166°
2026-05-04 06:21 -14.23476 25.64458 37131 ft 507 kts 166°
2026-05-04 06:22 -14.30260 25.66250 37133 ft 506 kts 166°
2026-05-04 06:25 -14.77925 25.78874 37132 ft 506 kts 166°
2026-05-04 06:26 -14.84730 25.80682 37128 ft 504 kts 166°
2026-05-04 06:26 -14.91515 25.82484 37129 ft 504 kts 166°
2026-05-04 06:27 -15.08441 25.86987 37124 ft 504 kts 166°
2026-05-04 06:28 -15.15226 25.88794 37127 ft 503 kts 166°
2026-05-04 06:28 -15.22006 25.90601 37128 ft 503 kts 166°
2026-05-04 06:29 -15.28742 25.92397 37124 ft 503 kts 166°
2026-05-04 06:29 -15.35517 25.94205 37127 ft 503 kts 166°
2026-05-04 06:30 -15.42300 25.96018 37134 ft 504 kts 167°
2026-05-04 06:30 -15.49085 25.97836 37129 ft 504 kts 167°
2026-05-04 06:31 -15.55869 25.99654 37129 ft 504 kts 167°
2026-05-04 06:31 -15.62606 26.01461 37133 ft 503 kts 167°
2026-05-04 06:33 -15.89706 26.08741 37140 ft 504 kts 167°
2026-05-04 06:34 -15.96496 26.10568 37137 ft 504 kts 167°
2026-05-04 06:34 -16.03282 26.12395 37142 ft 504 kts 167°
2026-05-04 06:36 -16.30364 26.19701 37138 ft 503 kts 167°
2026-05-04 06:37 -16.37144 26.21533 37141 ft 503 kts 167°
2026-05-04 06:37 -16.43915 26.23364 37141 ft 503 kts 167°
2026-05-04 06:38 -16.50641 26.25184 37138 ft 503 kts 167°
2026-05-04 06:40 -16.77673 26.32514 37151 ft 502 kts 167°
2026-05-04 06:40 -16.84428 26.34346 37151 ft 502 kts 167°
2026-05-04 06:41 -16.91189 26.36159 37157 ft 502 kts 167°
2026-05-04 06:41 -16.97951 26.37973 37157 ft 502 kts 167°
2026-05-04 06:42 -17.04710 26.39792 37165 ft 502 kts 167°
2026-05-04 06:44 -17.31718 26.46998 37168 ft 501 kts 168°
2026-05-04 06:44 -17.38490 26.48701 37170 ft 500 kts 168°
2026-05-04 06:45 -17.45216 26.50403 37170 ft 501 kts 168°
2026-05-04 06:45 -17.51985 26.52130 37165 ft 501 kts 168°
2026-05-04 06:46 -17.58753 26.53863 37168 ft 501 kts 168°
2026-05-04 06:46 -17.65523 26.55597 37162 ft 501 kts 168°
2026-05-04 06:48 -17.92546 26.62531 37162 ft 501 kts 168°
2026-05-04 06:50 -18.19568 26.69488 37164 ft 501 kts 168°
2026-05-04 06:51 -18.26335 26.71231 37170 ft 501 kts 168°
2026-05-04 06:51 -18.33066 26.72968 37178 ft 501 kts 168°
2026-05-04 06:52 -18.39838 26.74717 37179 ft 501 kts 168°
2026-05-04 06:52 -18.46612 26.76468 37188 ft 501 kts 168°
2026-05-04 06:53 -18.53381 26.78220 37187 ft 501 kts 168°
2026-05-04 06:53 -18.60111 26.79964 37195 ft 501 kts 168°
2026-05-04 06:54 -18.66880 26.81721 37195 ft 501 kts 168°
2026-05-04 06:54 -18.73652 26.83474 37201 ft 501 kts 168°
2026-05-04 06:55 -18.80422 26.85229 37206 ft 501 kts 168°
2026-05-04 06:55 -18.87183 26.86984 37205 ft 500 kts 168°
2026-05-04 06:57 -19.14139 26.94003 37208 ft 500 kts 168°
2026-05-04 06:58 -19.19686 26.95448 37208 ft 500 kts 168°
2026-05-04 06:58 -19.27530 26.97492 37208 ft 500 kts 168°
2026-05-04 06:59 -19.34279 26.99253 37212 ft 500 kts 168°
2026-05-04 06:59 -19.39886 27.00719 37211 ft 500 kts 168°
2026-05-04 07:01 -19.66843 27.07788 37209 ft 500 kts 168°
2026-05-04 07:02 -19.73602 27.09565 37208 ft 501 kts 168°
2026-05-04 07:02 -19.80363 27.11343 37213 ft 501 kts 168°
2026-05-04 07:03 -19.87127 27.13124 37211 ft 501 kts 168°
2026-05-04 07:03 -19.93891 27.14907 37211 ft 501 kts 168°
2026-05-04 07:04 -20.00603 27.16677 37208 ft 501 kts 168°
2026-05-04 07:04 -20.07364 27.18455 37205 ft 500 kts 169°
2026-05-04 07:05 -20.14106 27.20233 37205 ft 499 kts 168°
2026-05-04 07:05 -20.20850 27.22013 37205 ft 499 kts 169°
2026-05-04 07:06 -20.30930 27.24675 37206 ft 500 kts 169°
2026-05-04 07:07 -20.37684 27.26463 37203 ft 500 kts 169°
2026-05-04 07:09 -20.64681 27.33625 37192 ft 501 kts 169°
2026-05-04 07:09 -20.71451 27.35425 37204 ft 501 kts 169°
2026-05-04 07:10 -20.78217 27.37226 37204 ft 501 kts 169°
2026-05-04 07:12 -21.05284 27.44446 37199 ft 502 kts 170°
2026-05-04 07:12 -21.12067 27.46260 37206 ft 502 kts 170°
2026-05-04 07:13 -21.18911 27.47534 37206 ft 497 kts 178°
2026-05-04 07:13 -21.25741 27.48133 37204 ft 495 kts 180°
2026-05-04 07:14 -21.42932 27.49373 37207 ft 495 kts 180°
2026-05-04 07:15 -21.49806 27.49883 37208 ft 495 kts 180°
2026-05-04 07:15 -21.56635 27.50393 37199 ft 495 kts 180°
2026-05-04 07:16 -21.63508 27.50908 37209 ft 495 kts 180°
2026-05-04 07:16 -21.70383 27.51423 37199 ft 495 kts 180°
2026-05-04 07:17 -21.77260 27.51938 37201 ft 495 kts 180°
2026-05-04 07:17 -21.84093 27.52450 37199 ft 495 kts 180°
2026-05-04 07:18 -21.90970 27.52967 37204 ft 496 kts 180°
2026-05-04 07:18 -21.97851 27.53484 37193 ft 496 kts 180°
2026-05-04 07:19 -22.04735 27.54001 37194 ft 496 kts 180°
2026-05-04 07:19 -22.11623 27.54520 37195 ft 496 kts 180°
2026-05-04 07:20 -22.18176 27.55014 37193 ft 496 kts 180°
2026-05-04 07:20 -22.23234 27.55395 37191 ft 496 kts 181°
2026-05-04 07:22 -22.50735 27.57474 37182 ft 496 kts 181°
2026-05-04 07:23 -22.57620 27.57996 37182 ft 496 kts 181°
2026-05-04 07:23 -22.64499 27.58518 37180 ft 496 kts 181°
2026-05-04 07:24 -22.71387 27.59041 37173 ft 496 kts 181°
2026-05-04 07:24 -22.78230 27.59560 37175 ft 496 kts 181°
2026-05-04 07:26 -23.05781 27.61660 37187 ft 497 kts 181°
2026-05-04 07:27 -23.12628 27.62183 37168 ft 496 kts 181°
2026-05-04 07:27 -23.19512 27.62688 37180 ft 495 kts 183°
2026-05-04 07:28 -23.26337 27.62333 37182 ft 489 kts 189°
2026-05-04 07:28 -23.33110 27.61658 37194 ft 489 kts 191°
2026-05-04 07:29 -23.39881 27.60925 37185 ft 488 kts 191°
2026-05-04 07:29 -23.46641 27.60199 37181 ft 488 kts 191°
2026-05-04 07:30 -23.53368 27.59486 37190 ft 489 kts 191°
2026-05-04 07:30 -23.60128 27.58774 37185 ft 489 kts 191°
2026-05-04 07:31 -23.66917 27.58188 37188 ft 490 kts 188°
2026-05-04 07:33 -23.94147 27.56445 37193 ft 490 kts 189°
2026-05-04 07:33 -24.00897 27.55996 37197 ft 489 kts 189°
2026-05-04 07:34 -24.07696 27.55542 37200 ft 489 kts 189°
2026-05-04 07:34 -24.14491 27.55088 37200 ft 489 kts 189°
2026-05-04 07:35 -24.21292 27.54633 37204 ft 489 kts 189°
2026-05-04 07:35 -24.28087 27.54179 37200 ft 489 kts 189°
2026-05-04 07:36 -24.34882 27.53723 37199 ft 489 kts 189°
2026-05-04 07:38 -24.62044 27.51897 37206 ft 490 kts 189°
2026-05-04 07:38 -24.68845 27.51439 37206 ft 490 kts 189°
2026-05-04 07:39 -24.75600 27.50983 37208 ft 490 kts 189°
2026-05-04 07:39 -24.82405 27.50523 37217 ft 490 kts 189°
2026-05-04 07:40 -24.89214 27.50062 37220 ft 491 kts 189°
2026-05-04 07:40 -24.96026 27.49602 37029 ft 490 kts 189°
2026-05-04 07:41 -24.99410 27.49374 36885 ft 481 kts 189°
2026-05-04 07:41 -25.02708 27.49156 36721 ft 469 kts 189°
2026-05-04 07:41 -25.05967 27.48935 35987 ft 471 kts 189°
2026-05-04 07:41 -25.09266 27.48705 35010 ft 479 kts 188°
2026-05-04 07:42 -25.12621 27.48472 34042 ft 487 kts 188°
2026-05-04 07:42 -25.16024 27.48239 33023 ft 492 kts 187°
2026-05-04 07:42 -25.19455 27.48007 32115 ft 496 kts 187°
2026-05-04 07:42 -25.22898 27.47774 31413 ft 494 kts 187°
2026-05-04 07:43 -25.26275 27.47546 30800 ft 491 kts 187°
2026-05-04 07:43 -25.29677 27.47316 30196 ft 489 kts 187°
2026-05-04 07:43 -25.33063 27.47087 29534 ft 486 kts 187°
2026-05-04 07:43 -25.36427 27.46858 28815 ft 484 kts 187°
2026-05-04 07:44 -25.39777 27.46630 28190 ft 480 kts 187°
2026-05-04 07:44 -25.43097 27.46404 27603 ft 476 kts 187°
2026-05-04 07:44 -25.46385 27.46180 27024 ft 472 kts 187°
2026-05-04 07:44 -25.49636 27.45959 26627 ft 463 kts 187°
2026-05-04 07:45 -25.52818 27.45743 26389 ft 452 kts 187°
2026-05-04 07:45 -25.55917 27.45533 26179 ft 441 kts 187°
2026-05-04 07:45 -25.58900 27.45330 25961 ft 430 kts 188°
2026-05-04 07:45 -25.61847 27.45129 25763 ft 419 kts 188°
2026-05-04 07:46 -25.64728 27.44932 25563 ft 409 kts 188°
2026-05-04 07:46 -25.67531 27.44758 25379 ft 400 kts 186°
2026-05-04 07:46 -25.70281 27.45100 25092 ft 397 kts 167°
2026-05-04 07:46 -25.72753 27.46413 24464 ft 396 kts 146°
2026-05-04 07:47 -25.74658 27.48609 23659 ft 397 kts 124°
2026-05-04 07:47 -25.76070 27.51228 22865 ft 393 kts 119°
2026-05-04 07:47 -25.77410 27.53839 22130 ft 386 kts 120°
2026-05-04 07:49 -25.86864 27.71076 18681 ft 367 kts 120°
2026-05-04 07:49 -25.88206 27.73488 18202 ft 367 kts 120°
2026-05-04 07:49 -25.89546 27.75893 17712 ft 366 kts 120°
2026-05-04 07:50 -25.90883 27.78287 17201 ft 359 kts 120°
2026-05-04 07:50 -25.92174 27.80605 16719 ft 348 kts 120°
2026-05-04 07:50 -25.93436 27.82876 16300 ft 344 kts 120°
2026-05-04 07:50 -25.94667 27.85091 15895 ft 340 kts 120°
2026-05-04 07:51 -25.95905 27.87319 15496 ft 337 kts 120°
2026-05-04 07:51 -25.97131 27.89525 15164 ft 334 kts 120°
2026-05-04 07:51 -25.98348 27.91716 14839 ft 332 kts 120°
2026-05-04 07:51 -25.99648 27.93827 14518 ft 338 kts 129°
2026-05-04 07:52 -26.01436 27.95590 14204 ft 342 kts 149°
2026-05-04 07:52 -26.03599 27.96485 13839 ft 326 kts 171°
2026-05-04 07:52 -26.05828 27.96813 13467 ft 323 kts 175°
2026-05-04 07:52 -26.08064 27.97051 13061 ft 322 kts 176°
2026-05-04 07:53 -26.10286 27.97277 12665 ft 319 kts 177°
2026-05-04 07:54 -26.25115 27.98783 9820 ft 296 kts 178°
2026-05-04 07:55 -26.27154 27.98988 9443 ft 293 kts 178°
2026-05-04 07:55 -26.29193 27.99195 9304 ft 295 kts 178°
2026-05-04 07:55 -26.31250 27.99405 9303 ft 297 kts 178°
2026-05-04 07:55 -26.33304 27.99615 9295 ft 296 kts 178°
2026-05-04 07:56 -26.35319 28.00054 9215 ft 293 kts 161°
2026-05-04 07:56 -26.36953 28.01252 8847 ft 283 kts 135°
2026-05-04 07:56 -26.38013 28.03080 8319 ft 280 kts 113°
2026-05-04 07:56 -26.38733 28.05101 8014 ft 282 kts 110°
2026-05-04 07:57 -26.39405 28.07157 7955 ft 282 kts 110°
2026-05-04 07:57 -26.40061 28.09203 7944 ft 279 kts 109°
2026-05-04 07:57 -26.40664 28.11254 7934 ft 277 kts 102°
2026-05-04 07:57 -26.40643 28.13372 7945 ft 269 kts 73°
2026-05-04 07:58 -26.39864 28.15197 7945 ft 258 kts 53°
2026-05-04 07:58 -26.38809 28.16815 7947 ft 258 kts 49°
2026-05-04 07:58 -26.37496 28.18132 7949 ft 252 kts 27°
2026-05-04 07:58 -26.35914 28.18841 7953 ft 247 kts 11°
2026-05-04 07:59 -26.34246 28.19283 7950 ft 242 kts 10°
2026-05-04 07:59 -26.32677 28.19750 7947 ft 227 kts 12°
2026-05-04 07:59 -26.31216 28.20217 7963 ft 210 kts 12°
2026-05-04 07:59 -26.29865 28.20652 7959 ft 194 kts 11°
2026-05-04 08:00 -26.28586 28.21054 7921 ft 187 kts 11°
2026-05-04 08:00 -26.27352 28.21428 7698 ft 180 kts 11°
2026-05-04 08:00 -26.26183 28.21788 7449 ft 168 kts 11°
2026-05-04 08:02 -26.19220 28.23979 6133 ft 144 kts 11°
2026-05-04 08:02 -26.18254 28.24270 5926 ft 144 kts 10°
2026-05-04 08:02 -26.17281 28.24560 5715 ft 146 kts 14°
2026-05-04 08:03 -26.16309 28.24867 5551 ft 145 kts 13°
2026-05-04 08:03 -26.15413 28.25142 5521 ft 113 kts 15°
2026-05-04 08:03 -26.14955 28.25287 5515 ft 37 kts 14°
2026-05-04 08:03 -26.14708 28.25323 5510 ft 35 kts 358°
2026-05-04 08:04 -26.14596 28.25300 5512 ft 6 kts 346°
2026-05-04 08:04 -26.14560 28.25290 5513 ft 5 kts 342°
2026-05-04 08:04 -26.14511 28.25249 5516 ft 12 kts 316°
2026-05-04 08:04 -26.14453 28.25187 5517 ft 11 kts 316°
2026-05-04 08:05 -26.14400 28.25131 5521 ft 9 kts 316°
2026-05-04 08:05 -26.14359 28.25087 5528 ft 10 kts 316°
2026-05-04 08:05 -26.14290 28.25012 5537 ft 19 kts 316°
2026-05-04 08:05 -26.14161 28.24873 5538 ft 30 kts 315°
2026-05-04 08:06 -26.14018 28.24718 5539 ft 28 kts 316°
2026-05-04 08:06 -26.13882 28.24569 5539 ft 28 kts 315°
2026-05-04 08:06 -26.13748 28.24425 5550 ft 26 kts 316°
2026-05-04 08:06 -26.13617 28.24283 5551 ft 27 kts 315°
2026-05-04 08:08 -26.12761 28.24226 5552 ft 26 kts 15°
2026-05-04 08:08 -26.12723 28.24238 5549 ft 3 kts 15°
2026-05-04 08:10 -26.12809 28.23797 5556 ft 10 kts 210°
2026-05-04 08:11 -26.12833 28.23726 5556 ft 11 kts 273°
2026-05-04 08:11 -26.12814 28.23544 5553 ft 6 kts 276°
2026-05-04 08:11 -26.12813 28.23537 5554 ft 3 kts 276°
2026-05-04 08:12 -26.12822 28.23517 5558 ft 3 kts 231°
2026-05-04 08:12 -26.12845 28.23501 5557 ft 4 kts 204°
2026-05-04 08:12 -26.12874 28.23494 5556 ft 4 kts 187°
2026-05-04 08:12 -26.12893 28.23491 5555 ft 2 kts 187°
2026-05-04 08:13 -26.12908 28.23489 5554 ft 2 kts 186°